ECMWFFLT2_con_mucape_000.txt.gz
CAPE
784 1034 1311 1643 2007 2026 2094 2138 2100 1924 1754 1547 1531 1447 1284 1253 1846 1408 1631 1843 1682 1651 1654 1657 1948 1466 1583 1584 1447 1752 1602 1811 1783 1492 1794 1798 1674 1736 1692 1708 1204 1350 996 688 742 802 600 607 813 544 338 367 556 26 0 0 0 0 0 76 139 0
982 1133 1292 1564 1843 2132 2149 2161 2008 1821 1623 1636 1558 1424 1192 1401 1597 1086 1753 1676 1540 1618 1588 813 983 1278 1663 1583 1770 1903 1584 1427 1240 608 739 1693 1840 1751 1686 1646 1442 1217 1104 828 726 457 446 718 736 536 307 81 0 0 0 0 0 0 0 10 60 24
625 1051 1317 1517 1822 1904 1995 1937 1545 1765 1606 1645 1629 1612 1354 1581 838 1659 1979 1811 1532 1353 1262 905 1047 1146 1141 1033 1695 1842 1751 1562 1053 706 795 1715 1827 1705 1637 1619 1564 1158 1115 632 115 0 0 91 192 228 33 0 0 0 0 0 0 0 0 15 0 147
793 793 1003 1241 1437 1497 1585 2009 1955 1870 1890 1729 1758 1543 1796 1601 1357 1791 1825 1174 1286 1424 1457 1138 913 866 593 992 1032 1688 1447 898 1376 768 1308 1745 1646 1607 1531 1419 1269 1158 700 385 105 0 0 37 39 0 0 0 0 0 0 0 0 0 0 163 0 260
1015 878 892 1182 1228 1219 1167 1466 1932 2410 2040 1960 1903 1704 1850 1709 1302 1840 1593 1251 1153 1081 1111 1164 1017 704 777 884 1268 1211 1245 1173 1001 1185 1479 1526 1412 1382 1271 1034 942 743 376 260 166 101 0 6 44 0 1 0 0 0 0 0 0 0 0 17 31 344
1166 1078 997 1102 1200 1367 1393 1135 1449 2005 2668 2565 2524 1981 1947 1739 1422 1398 1282 1309 860 709 579 830 928 652 635 1223 1160 1180 887 1050 1392 1602 1453 1334 1309 1144 868 710 480 113 85 281 204 130 141 37 72 0 0 0 0 0 0 0 0 0 0 0 87 411
1237 1189 1136 1169 1230 1533 1309 1245 1352 1842 2046 2240 2646 2443 2093 1567 1362 1385 1448 1456 1098 642 526 576 727 705 801 1215 1380 922 1099 1680 2059 1870 1480 1241 1177 907 614 451 221 51 9 42 132 216 270 201 207 248 0 0 0 0 0 0 0 0 0 0 59 476
1267 1324 1273 1277 1319 1337 1392 1514 1576 1983 1989 2050 2114 2342 2179 1308 1484 1687 1778 1404 1059 839 596 693 619 694 612 1069 1539 1496 2158 2422 2095 1708 1615 1137 916 777 463 364 274 0 6 0 180 310 250 152 0 118 133 0 0 0 0 0 0 0 0 0 1 371
1404 1403 1388 1364 1414 1408 1395 1580 1732 1785 1944 1965 2000 2097 2249 1642 882 957 1112 1301 1205 1047 1095 976 784 821 692 1089 1479 1912 2649 2375 1853 1749 1590 1142 865 740 628 474 408 53 0 197 164 36 31 53 23 0 0 0 0 0 0 0 0 0 0 0 0 74
1636 1536 1474 1428 1439 1404 1309 1559 1693 1768 1660 1535 1793 1952 1846 1754 1211 814 802 1208 1146 1202 1425 1230 1230 678 807 1249 899 1747 2412 2211 1973 1662 1348 1062 888 744 642 522 354 0 0 0 0 0 28 36 50 38 0 0 0 0 0 0 0 0 0 0 0 6
1788 1649 1504 1436 1374 1252 1234 1390 1585 1670 1618 1445 1276 1378 1735 1796 2024 1333 1153 936 989 1224 1515 1531 784 923 1022 1246 1249 1844 2264 2169 1925 1610 1143 780 941 811 670 455 211 0 13 20 32 21 14 14 16 16 0 0 0 0 0 0 0 0 0 0 0 0
1854 1619 1435 1309 1197 1122 1109 1123 1222 1447 1568 1431 1388 1341 1401 1433 1435 1280 814 695 851 991 1345 1413 1074 990 1068 991 1174 1402 1451 2154 1902 1526 1073 698 751 828 697 472 273 94 24 12 14 16 15 17 58 251 294 101 0 0 0 0 0 0 0 0 0 0
1671 1396 1180 1129 1055 1017 953 937 1096 1301 1532 1579 1406 1368 1314 1275 1191 1081 1094 1009 1005 1122 1301 1156 898 1018 1111 813 1027 987 937 1726 1806 1552 1232 756 645 710 596 428 297 198 173 5 16 35 147 357 439 472 464 405 137 0 0 0 0 0 0 0 0 0
1407 1226 1058 821 575 545 667 906 1138 1235 1304 1336 1295 1284 1205 1216 1120 1059 1324 1245 1206 893 794 712 753 859 726 806 961 1149 1078 1342 1836 1438 1253 907 614 590 513 481 480 417 565 244 249 351 457 499 497 542 556 415 184 0 0 0 0 0 0 0 0 0
1319 942 159 0 0 0 0 560 937 980 1009 1232 1074 1032 779 912 765 995 1244 1266 1092 954 1276 924 1059 994 1195 914 948 1247 1465 1386 1734 1673 1326 1033 745 689 615 470 412 472 507 557 565 600 582 586 567 560 561 406 189 0 0 0 0 0 0 0 0 0
771 128 0 0 0 0 0 0 0 11 0 0 0 156 450 765 1276 1008 1064 1126 976 724 837 1166 1291 1092 1184 1050 1038 1020 1421 1569 1406 1635 1513 1201 928 769 628 572 570 561 648 669 649 568 516 525 540 507 497 422 221 18 0 0 0 0 0 0 0 0
0 0 0 0 0 0 0 0 0 0 0 0 0 0 0 95 0 0 21 910 1431 1637 1216 1467 1003 927 1168 1198 1167 1174 1100 1029 1285 1261 1091 1103 989 704 593 664 540 592 547 520 446 401 420 412 393 396 382 320 177 103 16 0 0 0 0 0 0 0
0 0 0 0 0 0 0 0 0 0 0 0 0 0 0 0 0 0 498 712 917 1329 1284 1188 1087 1067 1146 960 985 1051 1135 1198 1147 939 897 834 968 672 431 424 627 516 518 322 351 511 483 486 367 462 504 425 164 50 60 104 180 178 115 0 0 0
0 0 0 0 0 0 0 0 0 0 0 0 0 0 0 0 0 217 616 960 1153 1113 932 837 901 1052 1032 630 749 745 932 838 1024 994 811 676 783 694 531 397 650 657 510 482 398 450 479 528 571 509 488 501 328 61 11 87 153 219 211 0 0 0
0 0 0 0 0 0 0 0 0 0 0 0 0 0 0 0 0 0 559 879 931 727 655 588 577 518 167 198 134 275 348 395 432 543 452 396 558 359 542 496 684 574 582 608 534 500 495 596 598 253 203 262 284 168 37 9 40 123 220 0 0 0
0 0 0 0 0 0 0 0 0 0 0 0 0 0 0 0 0 0 0 120 0 0 0 0 0 0 0 90 0 0 226 299 103 133 181 189 393 347 588 661 625 618 645 617 606 721 695 654 496 111 60 80 224 149 92 30 40 78 0 0 0 0
0 0 0 0 0 0 0 0 0 0 0 0 0 0 0 0 0 0 0 0 0 0 0 0 0 0 0 0 0 0 0 0 0 10 30 50 165 448 611 698 737 764 663 622 744 631 614 551 473 115 62 82 80 103 187 172 21 0 0 0 0 0
0 0 0 0 0 0 0 0 0 0 0 0 0 0 0 0 0 0 0 0 0 0 0 0 0 0 0 0 0 0 0 0 0 0 0 0 52 182 488 604 738 582 563 485 311 329 378 450 410 223 152 98 126 65 84 122 140 14 10 0 0 0
0 0 0 0 0 0 0 0 0 0 0 0 0 0 0 0 0 0 0 0 0 0 0 0 0 0 0 0 0 0 0 2 2 0 0 0 0 0 92 387 349 376 264 232 229 252 316 285 423 406 352 260 140 89 110 88 121 163 126 23 0 0
0 0 0 0 0 0 0 0 0 0 0 0 0 0 0 0 0 0 0 0 0 0 0 0 0 0 0 0 0 0 0 0 1 0 0 0 0 0 0 0 64 295 327 506 562 466 368 363 277 306 388 184 238 163 170 123 94 104 125 138 100 52
0 0 0 0 0 0 0 0 0 0 0 0 0 0 0 0 0 0 0 0 0 0 0 0 0 0 0 0 0 0 0 0 0 0 0 0 0 0 0 0 0 45 257 409 567 478 543 412 441 358 172 162 168 216 191 146 40 73 119 126 59 0
0 0 0 0 0 0 0 0 0 0 0 0 0 0 0 0 0 0 0 0 0 0 0 0 0 0 0 0 0 0 0 0 0 0 0 0 0 0 0 0 0 0 0 100 185 178 175 315 340 221 152 174 198 189 142 98 109 77 85 92 4 0
0 0 0 0 0 0 0 0 0 0 0 0 0 0 0 0 0 0 0 0 0 0 0 0 0 0 0 0 0 0 0 0 0 0 0 0 0 0 0 0 0 0 0 0 0 0 0 4 58 73 129 199 186 187 136 140 159 100 44 18 8 4
0 0 0 0 0 0 0 0 0 0 0 0 0 0 0 0 0 0 0 0 0 0 0 0 0 0 0 0 0 0 0 0 0 0 0 0 0 0 0 0 0 0 0 0 0 0 0 0 0 0 0 19 150 110 124 159 140 173 117 48 23 24
0 0 0 0 0 0 0 0 0 0 0 0 0 0 0 0 0 0 0 0 0 0 0 0 0 0 0 0 0 0 0 0 0 0 0 0 0 0 0 0 0 0 0 0 0 0 0 0 0 0 0 0 0 0 10 61 64 11 57 95 10 8
0 0 0 0 0 0 0 0 0 0 0 0 0 0 0 0 0 0 0 0 0 0 0 0 0 0 0 0 0 0 0 0 0 0 0 0 0 0 0 0 0 0 0 0 0 0 0 0 0 0 0 1 1 3 3 3 3 5 5 7 12 12
0 0 0 0 0 0 0 0 0 0 0 0 0 0 0 0 0 0 0 0 0 0 0 0 0 0 0 0 0 0 0 0 0 0 0 0 0 0 0 0 0 0 0 0 0 0 0 0 0 0 0 0 0 3 4 6 7 13 12 16 13 9
32 0 0 0 0 0 0 0 0 0 0 0 0 0 0 0 0 0 0 0 0 0 0 0 0 0 0 0 0 0 0 0 0 0 0 0 0 0 0 0 0 0 0 0 0 0 0 0 0 0 0 0 0 0 0 0 2 6 7 12 18 9
0 0 0 0 0 0 0 0 0 0 0 0 0 0 0 0 0 0 0 0 0 0 0 0 0 0 0 0 0 0 0 0 0 0 0 0 0 0 0 0 0 0 0 0 0 0 0 0 0 0 0 0 0 0 0 0 0 4 5 5 5 5
0 0 0 0 0 0 0 0 0 0 0 0 0 0 0 0 0 0 0 0 0 0 0 0 0 0 0 0 0 0 0 0 0 0 0 0 0 0 0 0 0 0 0 0 0 0 0 0 0 0 0 0 0 0 0 0 0 0 0 2 5 9
95 96 0 0 0 0 0 0 0 0 0 0 0 0 0 0 0 0 0 0 0 0 0 0 0 0 0 0 0 0 0 0 0 0 0 0 0 0 0 0 0 0 0 0 0 0 0 0 0 0 0 0 0 0 0 0 0 0 0 0 0 2
103 101 94 6 0 0 0 0 0 0 0 0 0 0 0 0 0 0 0 0 0 0 0 0 0 0 0 0 0 0 0 0 0 0 0 0 0 0 0 0 0 0 0 0 0 0 0 0 0 0 0 0 0 0 0 0 0 0 0 0 0 0

ECMWFFLT2_con_mucape_006.txt.gz
CAPE
1630 1081 1412 1475 1293 1150 1184 1198 1034 884 746 918 1175 1381 1521 1576 1879 2001 2009 1562 1462 1384 1648 1941 1970 543 2063 1533 1779 1534 1923 2117 2026 1765 1933 1507 1284 1264 1333 1270 1133 1000 823 734 742 789 860 762 696 775 812 678 864 565 746 673 662 389 479 276 414 607
1402 1586 1336 1433 1348 961 1329 1041 946 1088 995 1086 1311 1298 1648 2014 1313 2325 1649 1965 1613 1489 988 1024 624 468 544 727 1460 1423 1809 2156 2193 2087 1973 1932 1522 1449 1132 1206 1062 998 908 672 428 32 157 560 529 739 843 964 760 601 906 788 818 362 392 406 551 557
1353 1551 1858 1783 1982 1596 1435 1082 1028 1583 1358 1362 1353 1311 1336 1758 1494 2115 1927 1790 1526 1596 1514 1291 1506 722 834 1970 1337 1946 1779 1945 2218 2157 2158 2035 1714 1406 984 869 1014 975 877 671 79 76 99 141 259 75 445 984 414 474 661 779 796 480 345 496 536 611
1199 1609 2004 2031 2116 2121 1776 2268 1555 1120 1086 1425 1564 1246 1440 1012 1333 1668 998 1493 1616 1557 1396 1313 1531 1981 1490 721 1481 1459 1419 1494 1832 2008 2099 2020 1930 1388 1278 746 561 1168 848 56 139 157 52 137 169 221 540 490 455 499 656 751 661 496 373 332 343 642
1009 1392 1633 2014 2142 2055 2101 1808 1876 1787 1156 1022 1173 1504 1808 1866 1790 1884 1837 1932 1470 1631 1010 1414 1453 1032 759 1042 1252 1076 1266 905 745 472 1283 506 469 314 1161 1183 1079 518 248 269 299 196 134 145 208 223 372 455 419 464 564 659 570 505 555 574 626 567
1042 1193 1627 1635 1341 1592 1992 1912 1962 1904 1860 1519 1286 1796 2017 2031 2054 2199 1914 1559 1589 1282 493 1269 1521 1525 1483 1719 1641 1151 1311 1239 914 688 399 330 326 303 376 585 866 716 660 531 446 377 261 209 187 237 249 363 367 398 534 574 560 629 607 606 1016 605
1158 1226 1270 1302 1318 1466 1396 1848 1961 2005 1866 1649 1725 1906 2100 2142 1999 2212 2035 1745 1622 705 541 1212 1608 1724 1857 1787 1716 1676 1501 1708 1482 944 966 395 348 398 325 333 495 692 568 500 527 254 274 284 248 142 234 266 363 384 480 567 550 777 645 654 1184 652
1182 1202 1364 1119 1330 1382 1463 1279 1760 1603 1739 1818 1731 1846 2080 2070 2086 2198 2344 2172 1452 1168 848 788 772 1097 1095 1845 1911 1954 1872 1413 1397 792 870 273 309 296 347 331 551 386 386 377 332 395 258 115 251 233 243 262 323 349 376 452 609 569 679 620 860 760
971 1181 1230 1053 1061 1061 1371 1384 1334 1395 1815 1767 1965 1947 2183 2257 2362 2150 2286 2226 2008 1855 1239 845 745 1433 1268 1960 2046 2081 1979 1679 1188 807 933 614 396 215 220 304 331 458 515 327 248 251 251 212 254 295 174 228 243 234 353 362 460 446 565 444 696 938
840 762 962 876 805 859 980 1078 1337 1317 1806 1986 2173 2500 2592 2088 2232 2303 2113 2084 1829 2173 1732 1015 1586 1619 1846 1919 2014 2224 2018 2134 1580 614 1158 791 527 402 271 365 189 120 268 213 145 164 238 249 165 142 140 133 159 266 305 346 335 334 375 372 657 1169
691 1014 676 496 680 941 952 877 996 1406 2159 2129 2312 1964 1953 2138 1827 1456 1984 1896 1828 2141 2414 2194 1980 1836 1929 1685 1654 1859 2391 2326 2310 2050 1145 701 583 530 412 272 138 63 24 210 177 214 167 207 223 100 157 74 110 190 236 262 254 247 266 270 369 595
1109 1816 1077 410 799 775 753 820 998 1097 2045 1949 2175 1527 1983 2347 2463 2173 1909 2316 2352 2532 2091 2314 2264 2069 1834 1584 1861 1840 1879 1977 1752 1601 1494 813 590 434 400 128 87 228 224 275 304 236 248 306 237 109 142 111 110 144 157 204 180 209 205 222 277 368
1104 1775 1132 680 467 661 736 711 683 998 1735 2220 2126 2139 2064 2024 2013 2206 2189 1932 2096 2209 2239 2405 2397 2193 1494 1660 2043 1817 1711 1860 1988 1614 1511 1156 662 573 374 274 239 179 257 297 358 368 259 276 330 334 285 192 162 110 79 102 183 219 184 182 189 288
1559 1214 1205 701 842 526 737 755 713 1026 1328 1877 1934 1862 2109 1924 1986 2042 1992 1768 1816 2009 1996 2215 1970 2160 2064 1899 1674 1665 1479 1352 1479 1360 1416 1488 651 686 581 281 310 317 300 284 340 487 404 363 422 526 645 424 258 160 129 102 119 172 216 173 185 242
2220 1421 1456 1027 734 800 863 514 696 837 1028 1081 1071 1477 1932 2014 1907 1667 1812 1757 1930 1925 1656 1673 1620 2092 1925 1873 1828 1719 1551 1464 1365 1144 1600 1360 1072 484 526 607 498 351 488 352 272 494 581 1071 1271 874 719 738 375 226 224 111 124 168 142 183 216 202
1974 1823 1588 1330 1282 1085 937 796 662 641 641 805 590 872 1543 1691 1505 1539 1596 1596 1788 1879 1956 1940 1826 1973 1996 1836 1844 1780 1660 1378 1562 1514 1468 1422 1199 659 354 909 1094 1099 1010 790 737 895 1054 910 607 757 641 689 627 469 326 164 136 151 114 128 81 121
1778 1720 1430 1177 863 1217 960 805 633 569 541 591 442 502 492 664 796 1146 1373 1422 1839 1902 1985 1887 2057 1899 1899 1751 1712 1745 1720 1767 1632 1266 1298 1720 1714 1056 496 550 1467 1363 1547 1575 914 834 838 753 721 501 721 730 371 629 227 120 100 105 48 72 82 82
2087 1676 993 707 823 716 643 519 382 413 509 396 455 355 308 308 374 735 956 1406 1591 1635 1693 1842 1907 1889 1906 1710 1662 1611 1457 1569 1697 1607 1640 1624 1744 1500 1556 1779 1976 1972 1192 1405 1348 1051 1049 1194 931 930 938 970 678 777 415 174 170 143 83 58 70 55
2039 1284 917 886 902 795 731 540 480 380 408 294 253 283 283 313 376 409 530 622 616 644 548 820 1221 1708 1830 1750 1717 1536 1265 1394 1507 1660 1616 1470 1526 1581 1713 1739 1424 1337 1393 1314 1218 1424 1277 1123 934 910 956 978 854 489 646 753 363 244 284 184 223 261
1458 896 777 643 269 126 22 5 155 178 204 287 276 220 205 227 194 206 327 345 364 401 348 472 526 664 814 1147 1270 1095 1410 1418 1425 1626 1722 1528 1344 1304 1495 1764 1639 1391 1770 1424 1109 1136 1256 956 982 1095 912 952 826 613 504 789 760 710 409 440 687 602
1256 892 519 321 82 3 0 1 2 20 60 120 176 186 55 70 79 108 67 21 2 14 134 155 219 404 500 606 680 1322 1528 1535 1549 1689 1572 1586 1478 1491 1703 1916 1930 1904 1729 1562 1468 1628 962 1160 1314 866 1188 1122 1075 537 454 530 925 828 664 641 754 800
1130 766 491 360 89 6 2 0 4 1 0 0 0 0 0 3 2 0 0 0 0 0 5 53 54 264 341 297 332 465 927 1421 1491 1362 1512 1479 1462 1262 1366 1443 1337 1497 1425 1392 1562 1606 1364 1268 673 824 736 794 903 622 353 364 366 410 714 712 798 912
1038 760 570 400 123 36 101 98 0 0 0 13 76 38 0 0 0 0 0 0 0 0 2 2 21 10 70 131 163 179 274 312 629 1017 1334 1349 1219 1581 1642 1452 1192 1167 1342 1262 1358 1624 1473 810 1195 926 1389 656 557 537 1132 415 508 423 510 325 292 300
1191 806 596 459 26 64 169 402 243 179 52 0 0 0 0 0 0 0 0 0 1 11 12 10 0 0 0 14 51 145 142 191 415 523 416 649 851 766 788 910 767 637 741 1068 917 1207 1376 1504 1064 1091 518 901 960 468 211 701 764 471 306 137 251 199
1154 857 560 356 270 442 234 161 284 180 65 37 0 0 0 0 0 0 0 0 1 0 1 0 0 1 0 4 20 61 103 131 134 128 96 102 142 243 428 561 624 945 659 689 992 1121 1282 824 1149 1254 1258 412 485 398 651 645 505 484 578 268 335 257
1014 891 458 425 461 75 13 16 1 0 0 0 0 0 0 0 0 2 0 0 0 0 0 1 2 3 0 1 13 40 78 24 53 55 34 22 14 27 22 109 340 356 564 1115 1257 1083 1098 1164 484 656 656 639 752 818 929 800 426 463 661 526 231 114
1036 833 482 408 330 34 46 23 4 0 0 0 0 1 2 3 6 0 1 2 13 44 15 30 8 0 0 1 8 14 27 13 6 11 16 28 20 20 6 11 80 138 252 372 518 476 226 840 301 216 380 918 727 1186 879 744 350 321 270 262 420 799
961 694 594 500 330 58 38 35 11 0 0 0 0 4 13 24 10 4 2 5 18 57 30 19 13 7 1 0 1 2 4 4 2 0 2 10 15 8 9 38 40 56 47 88 137 217 250 291 161 60 268 240 286 389 225 467 469 413 484 247 249 535
886 672 682 672 306 158 50 36 18 0 0 0 4 2 1 2 8 6 26 10 24 20 24 4 0 4 1 0 0 0 0 0 0 0 0 0 0 4 14 29 37 36 27 20 19 30 27 33 42 54 88 80 144 229 354 438 317 139 270 216 261 428
870 710 776 696 386 209 138 117 36 1 0 0 0 0 0 7 20 16 11 27 14 10 0 0 0 0 0 0 0 0 0 0 0 0 0 0 0 0 0 0 4 11 15 14 10 12 2 0 0 6 0 1 2 8 37 106 67 23 70 152 103 98
831 582 721 710 356 299 266 307 51 28 10 2 0 1 11 19 19 22 1 0 2 0 0 0 0 0 0 0 0 0 0 0 0 0 0 0 0 0 0 0 0 0 0 0 0 0 0 0 0 0 0 0 0 0 0 1 1 0 0 1 1 5
759 627 758 647 439 382 419 313 210 155 26 23 13 7 3 8 23 9 5 0 0 0 0 0 0 0 0 0 0 0 0 0 0 0 0 0 0 0 0 0 0 0 0 0 0 0 0 0 0 0 0 0 0 0 0 0 0 0 0 0 0 0
719 681 720 597 506 455 512 483 326 390 108 101 104 22 5 19 11 0 3 0 0 0 0 0 0 0 0 0 0 0 0 0 0 0 0 0 0 0 0 0 0 0 0 0 0 0 0 0 0 0 0 0 0 0 0 0 0 0 0 0 0 0
701 696 683 610 508 468 610 605 509 520 320 176 261 128 27 41 37 5 4 1 0 0 0 0 0 0 0 0 0 0 0 0 0 0 0 0 0 0 0 0 0 0 0 0 0 0 0 0 0 0 0 0 0 0 0 0 0 0 0 0 0 0
669 754 681 627 602 518 574 623 627 746 619 455 313 173 94 59 191 23 20 9 0 0 0 0 0 0 0 0 0 0 0 0 0 0 0 0 0 0 0 0 0 0 0 0 0 0 0 0 0 0 0 0 0 0 0 0 0 0 0 0 0 0
701 874 775 710 634 591 618 645 795 856 867 867 475 212 93 94 276 196 112 20 0 0 0 0 0 2 0 0 0 0 0 0 0 0 0 0 0 0 0 0 0 0 0 0 0 0 0 0 0 0 0 0 0 0 0 0 0 0 0 0 0 0
767 759 783 882 789 689 747 838 977 1072 1067 984 948 797 346 519 598 546 368 99 12 4 0 0 4 47 1 0 0 0 0 0 0 0 0 0 0 0 0 0 0 0 0 0 0 0 0 0 0 0 0 0 0 0 0 0 0 0 0 0 0 0

ECMWFFLT2_con_mucape_009.txt.gz
CAPE
1451 1935 1528 1413 1331 1583 1558 1238 1373 1498 1467 1503 1529 1612 1502 1307 1373 1572 1695 2023 2088 1390 1690 1216 2103 1446 1913 1744 1687 2073 1673 1442 1541 1463 1638 1446 1377 1161 1173 1268 1310 1184 967 796 612 687 750 668 776 518 678 1202 943 802 870 348 268 224 292 0 532 561
1606 1376 1326 1386 1308 1364 1424 1422 1810 1435 1560 1422 1187 1563 1429 1779 1574 1262 1042 1508 1091 1650 1620 1376 946 1180 1188 1211 1506 2114 2080 2044 1633 1600 1687 1625 1325 1225 1305 1207 1291 1060 953 758 784 134 319 828 726 421 514 765 860 812 678 671 501 164 125 129 498 617
1366 2066 1357 1322 1291 1999 1632 1740 1869 1666 1391 1177 1610 1660 1819 1738 1556 1491 1374 1438 1598 1455 1565 1360 1158 444 630 862 877 1889 2191 2169 2052 1899 1782 1619 1465 1404 1166 1347 1163 987 880 871 179 2 50 120 122 624 950 898 801 576 701 707 550 290 81 540 465 631
1382 1229 1463 1526 1695 1403 1630 1544 1815 1665 1641 1302 1308 1580 1799 1584 1500 1748 1041 1308 1347 1365 1368 1666 1288 1196 1356 838 1222 1814 2016 2145 2259 1867 1965 1670 1623 1406 1260 1157 1007 915 907 32 0 0 10 128 281 103 143 605 633 832 893 824 552 395 270 326 338 762
1168 1507 1591 1624 1447 1601 1655 1754 1668 1450 1455 1404 1285 1503 1710 1463 1583 1603 1189 1513 1053 1008 1304 1388 1359 801 346 522 1385 1466 1456 933 1013 871 2079 398 930 1485 1231 914 763 573 198 108 52 128 29 18 110 171 375 540 466 747 792 704 654 308 291 542 507 602
1380 1284 1285 1434 1309 1617 1304 1180 1173 1561 1385 1312 1303 1570 1603 1638 1234 1287 1340 1171 1860 711 924 1097 1398 1102 576 2133 1061 853 1189 1205 628 674 838 322 518 519 423 824 889 544 375 344 373 341 68 130 72 179 220 402 610 622 725 757 661 688 350 846 478 799
1137 1176 1072 818 1068 1058 1345 865 1352 1181 1502 1206 1096 1484 1578 1706 1752 1562 1628 1480 1565 947 545 784 1219 1162 1353 1085 1481 1431 791 1144 1584 705 667 749 515 433 390 761 1103 832 666 540 391 380 265 141 158 105 121 197 326 542 676 749 732 663 655 859 738 976
1099 1270 1346 923 915 780 840 690 820 1065 1571 1602 1205 1156 944 1236 1251 1060 1076 1049 1102 892 998 562 1157 1308 1202 909 1063 1190 1330 1007 1179 1000 704 692 381 268 370 345 466 301 454 330 857 300 234 131 138 209 135 187 276 259 574 754 911 838 634 616 488 960
909 854 1037 892 1104 1199 1058 1050 856 966 1323 1330 1332 1105 1410 1424 1011 1400 1092 1261 1659 1473 992 826 593 906 862 1170 1253 1093 1320 1028 1188 1079 970 1051 449 308 367 522 515 548 591 523 319 368 253 209 208 244 173 155 156 187 349 568 862 713 746 516 930 766
458 502 735 672 696 739 1009 1252 1399 982 1141 775 1110 1264 1206 1078 1176 1318 1297 1793 1840 1567 1638 912 980 1055 1081 1326 1164 1304 1647 1300 1361 1053 862 1156 650 519 561 563 442 460 295 323 274 344 319 341 388 379 136 111 124 144 282 448 442 500 723 373 581 871
363 530 307 219 542 778 824 766 960 1276 1888 1790 1486 1439 1652 1245 1028 1404 1103 1745 1400 1480 1503 981 1272 1453 1401 987 1000 1970 1599 2112 2059 1331 1602 966 716 785 693 606 365 141 230 108 123 135 88 357 437 278 195 91 82 113 190 278 412 542 584 413 628 1060
308 661 599 300 191 509 330 427 646 672 1950 1709 1850 1610 1583 1421 1741 1073 1395 1490 1660 1217 1249 1085 1807 1557 1291 1169 988 1234 1966 2049 1969 1687 1612 1015 804 575 678 438 164 143 127 59 174 251 235 252 308 219 194 163 105 101 139 216 201 354 365 547 419 973
449 482 546 589 612 526 685 483 375 556 1494 1948 1848 1817 1453 1592 1808 1565 1788 1946 1845 1834 1503 1770 1429 1395 1528 823 1360 1730 1652 1942 2058 1946 1523 1258 1030 677 578 374 152 200 187 237 300 238 178 236 358 195 188 145 124 90 94 110 242 272 274 272 264 273
728 510 755 621 366 514 609 658 448 494 1161 2152 1906 1690 1694 2121 1774 1280 1865 2097 2068 1975 1685 1468 1156 997 1505 1298 1328 1732 1932 2164 2070 2000 1630 1050 1055 927 687 485 416 197 234 251 337 490 308 221 159 228 336 322 300 195 132 105 149 195 286 345 202 200
1200 933 619 639 451 629 749 535 477 516 815 1225 1943 1718 1628 1617 1653 1854 1757 1641 1810 1742 1762 1370 1327 1608 1161 1167 1275 1974 2199 2149 2057 1923 1546 1231 1109 792 648 597 348 437 330 363 413 213 193 1251 1385 924 859 987 734 192 292 210 153 119 190 265 288 252
1615 1421 1414 939 1282 1099 724 811 666 643 722 879 1084 1523 1642 1332 1562 1720 1420 1108 1494 1632 1626 1512 1484 1466 1321 1149 1246 1808 2122 2178 2175 1792 1329 1348 1022 1064 936 985 717 509 810 293 380 282 930 1110 1517 1277 1252 1190 1024 717 412 253 151 189 181 235 254 270
1979 1652 1126 1007 1024 1081 774 758 728 655 576 602 486 697 935 1078 1396 1013 682 1298 1624 1607 1655 1584 1568 1477 1773 1864 1850 1922 2066 2075 2124 1975 1954 1844 1336 1024 1086 821 1246 827 940 1499 870 1324 1252 859 1340 1233 1230 1094 1330 1076 828 388 162 153 134 151 207 194
1950 1528 1133 893 864 735 781 307 202 384 605 378 426 375 389 509 785 994 1044 854 1184 1246 1411 1480 1729 1702 1552 1805 1881 1883 1842 1966 1968 1976 2083 2108 1604 1289 1179 807 1122 1238 1226 1015 759 932 935 1160 1210 1083 1240 1386 1348 1395 1010 835 736 485 138 149 176 178
2025 1382 953 981 968 1068 650 813 295 158 84 107 303 359 310 326 400 524 1065 1119 1250 1169 1250 1247 859 1301 1822 1723 1770 1715 1610 1734 1745 1661 1797 1884 1818 1550 1342 1640 1622 1751 898 1068 875 859 652 1033 1125 968 814 1271 1733 1222 1344 1495 1034 688 480 168 97 108
1913 1137 1014 1085 677 396 395 297 297 346 300 335 266 261 264 280 243 239 436 575 624 570 665 906 1153 1027 1592 1361 1523 1551 1724 1669 1610 1450 1646 1314 1535 1409 1577 1828 1692 1081 794 920 678 1321 1126 1274 1210 1208 1364 1049 1306 1466 1234 1415 1309 798 474 462 209 141
1859 1100 773 738 354 322 275 287 234 288 260 162 234 3 96 234 214 276 212 100 127 308 423 378 320 252 366 510 890 1291 1605 1700 1498 1246 954 1027 1046 1055 1355 1893 2101 1451 1302 859 766 984 1575 1568 1501 1092 1164 1170 1028 1259 1224 945 960 1220 951 370 348 378
1431 973 629 584 334 257 216 204 74 171 114 11 0 1 0 6 30 2 0 0 0 0 31 137 117 362 367 227 188 523 1564 1406 1399 1082 702 788 762 944 989 1713 1074 960 450 477 344 630 1244 1266 1160 618 507 608 752 1440 1405 1356 1153 894 1102 983 475 772
1502 736 510 611 188 224 257 106 161 7 23 49 111 9 0 0 0 0 5 15 56 44 41 29 79 128 60 133 154 121 304 634 1241 1339 1261 1062 1120 879 675 736 584 617 592 420 578 917 1014 1121 1174 621 458 292 652 828 860 876 754 413 885 1099 656 574
1320 690 594 526 117 363 484 251 90 14 4 1 0 2 0 0 0 0 24 74 128 281 146 84 47 16 35 46 109 140 176 321 548 360 880 1274 1201 1033 831 616 747 1097 1134 587 615 524 944 1078 1205 681 474 611 726 643 639 645 461 1108 815 678 339 456
1291 825 465 429 384 560 584 523 313 208 39 0 0 0 0 0 0 0 0 71 71 45 6 0 5 7 0 0 5 19 120 227 272 257 313 288 168 216 542 872 1058 1077 1026 1011 897 732 635 873 1071 888 888 812 637 689 814 927 370 940 1186 306 349 165
1244 889 573 417 635 489 235 260 76 0 0 0 0 0 5 0 0 0 0 3 1 15 44 42 7 1 0 0 3 7 14 65 124 144 88 144 63 20 15 87 276 367 562 974 1248 609 547 578 564 550 700 977 940 676 706 573 279 433 1161 1114 830 445
1206 921 651 489 849 95 25 10 0 0 0 0 0 10 12 20 4 0 13 25 18 81 90 27 1 0 0 0 2 0 2 7 9 24 15 18 16 15 6 6 65 137 194 239 594 603 357 311 578 417 454 582 551 356 164 251 432 346 277 1039 1208 971
1222 787 674 675 668 58 112 20 0 0 0 0 10 39 10 10 3 4 13 71 85 96 57 50 20 1 0 0 0 1 3 4 0 0 3 4 16 6 10 9 13 52 25 105 202 306 392 344 409 449 538 546 435 271 286 358 304 148 276 150 621 982
1282 877 693 660 480 163 190 42 0 0 0 1 37 14 11 3 3 8 25 26 19 7 26 36 22 4 0 0 0 0 0 0 0 0 0 0 0 2 12 29 30 39 41 50 66 92 60 63 57 140 312 403 365 382 329 362 268 190 95 126 162 384
1396 1014 731 664 500 257 258 118 20 1 0 2 1 1 5 9 16 14 46 26 3 0 0 0 0 0 0 0 0 0 0 0 0 0 0 0 0 0 0 2 9 23 23 12 10 14 34 16 9 10 4 10 6 6 117 156 101 74 84 222 185 95
1422 1132 837 728 565 379 361 200 64 8 0 24 1 2 14 14 8 17 4 4 1 0 0 0 0 0 0 0 0 0 0 0 0 0 0 0 0 0 0 0 0 0 0 0 0 0 0 0 0 0 0 0 0 0 0 1 4 1 0 0 0 0
1538 1038 1060 794 620 489 474 308 178 121 14 54 8 8 45 9 3 15 3 5 2 0 0 0 0 0 0 0 0 0 0 0 0 0 0 0 0 0 0 0 0 0 0 0 0 0 0 0 0 0 0 0 0 0 0 0 0 0 0 0 0 0
1432 1088 1222 810 606 668 537 457 297 178 85 100 48 14 135 88 13 44 1 5 0 0 0 0 0 0 0 0 0 0 0 0 0 0 0 0 0 0 0 0 0 0 0 0 0 0 0 0 0 0 0 0 0 0 0 0 0 0 0 0 0 0
1470 1332 1316 970 512 579 566 608 394 287 151 123 92 37 142 102 53 58 3 15 0 5 0 0 0 0 0 0 0 0 0 0 0 0 0 0 0 0 0 0 0 0 0 0 0 0 0 0 0 0 0 0 0 0 0 0 0 0 0 0 0 0
1550 1344 1309 911 476 610 679 747 432 423 224 206 104 87 67 78 85 64 33 14 0 4 4 5 0 0 0 0 0 0 0 0 0 0 0 0 0 0 0 0 0 0 0 0 0 0 0 0 0 0 0 0 0 0 0 0 0 0 0 0 0 0
1658 1350 1404 1012 598 592 591 831 608 517 422 285 240 150 47 112 99 101 111 42 2 10 8 15 10 0 0 0 0 0 0 0 0 0 0 0 0 0 0 0 0 0 0 0 0 0 0 0 0 0 0 0 0 0 0 0 0 0 0 0 0 0
1316 1404 1342 1173 844 630 678 806 844 604 594 469 366 283 144 164 327 168 209 130 6 8 39 66 53 17 0 7 7 0 0 0 0 0 0 0 0 0 0 0 0 0 0 0 0 0 0 0 0 0 0 0 0 0 0 0 0 0 0 0 0 0

ECMWFFLT2_con_mucape_015.txt.gz
CAPE
1882 1974 1968 1896 1954 2173 2471 2448 2436 2551 2598 2598 2470 2347 2236 2484 2411 2334 2113 2180 1922 1661 1619 1728 1863 1853 2018 1806 1731 1900 1753 1581 1541 1602 1580 1442 1324 1289 1204 1206 1247 1311 1164 694 719 721 748 749 832 739 1047 1178 1207 856 540 616 421 456 464 570 527 478
1885 1991 1920 1882 1886 1972 2108 2128 2169 2303 2269 2222 2389 2404 2109 2139 2203 2064 2043 1878 1693 1724 1569 1731 1514 2018 1867 2056 1973 2017 1892 1718 1610 1636 1693 1506 1378 1439 1254 1298 1345 1427 1308 854 841 734 664 744 854 1008 877 888 769 539 496 687 492 478 488 408 503 787
1817 1931 1865 1869 1837 1872 1902 1915 1970 1919 1969 2208 2255 2268 1977 2005 1909 1847 1871 1675 1361 1203 1438 1544 1407 1746 1520 1834 1980 1886 1892 1838 1712 1657 1759 1694 1633 1485 1484 1361 1462 1502 1386 1126 841 387 193 84 260 724 1016 695 389 480 548 678 491 500 434 540 593 1051
1870 1931 1875 1839 1793 1823 1815 1852 1838 1767 1906 2078 2052 1794 1750 1550 1687 1710 1624 1418 1336 1211 1037 1128 1267 1209 1440 1517 1983 1918 1897 1967 1881 1752 1788 1847 1772 1585 1473 1319 1381 1500 1508 1145 742 346 27 13 26 8 42 115 426 476 563 612 663 518 477 881 852 1162
2010 1970 1896 1914 1761 1760 1828 1769 1841 1694 1835 1990 1929 1674 1499 1513 1493 1508 1499 1397 1308 1174 1029 1008 945 1012 932 1163 1797 1924 1940 1777 1732 1723 1805 1455 1491 1494 1497 1283 1284 1282 1301 1001 588 346 3 0 57 13 30 431 554 584 575 601 607 618 565 733 963 1156
2152 2009 1959 1956 1825 1897 1828 1780 1811 1665 1713 1763 1735 1628 1417 1470 1377 1436 1418 1416 1267 1054 1051 960 979 779 957 990 991 1746 1927 1746 1695 1695 1743 1404 1270 1261 1254 1234 1165 1174 1190 918 480 2 0 4 1 10 300 475 567 521 495 644 483 638 459 688 1020 1207
2168 2068 2028 2061 1959 2102 1818 1692 1726 1635 1593 1541 1595 1528 1426 1347 1307 1272 1275 1285 1125 1163 1112 1043 1031 928 973 1187 956 1054 1348 1183 1191 1002 1511 1099 1079 990 1227 1115 948 911 851 590 129 6 213 6 5 28 57 372 495 462 423 619 652 640 553 800 1208 1287
2118 2071 2051 2062 2028 2021 1940 1775 1733 2183 1580 1841 1438 1442 1339 1199 1141 1175 1115 1195 1075 1169 1204 969 997 1217 997 966 791 780 1351 1700 1440 1457 1216 762 744 653 642 914 810 714 594 449 344 323 316 283 10 13 16 76 254 432 703 555 583 633 540 823 1010 1256
2116 1934 1943 2100 2052 2001 2009 1896 1820 1676 1589 2260 1533 1419 1357 1246 1280 1252 1214 1210 1209 1127 1068 780 827 1024 955 1041 847 824 1068 1276 1443 1154 1001 847 808 710 631 766 784 641 739 618 540 411 356 214 160 17 44 85 106 247 567 621 679 721 663 793 876 1163
1906 1929 2019 2019 2059 2046 1983 1908 1804 1723 1830 1962 1546 1447 1422 1435 1353 1226 1270 1205 1217 1263 1039 1043 1043 866 746 714 813 844 1127 1058 1011 897 710 609 641 776 637 728 730 776 806 731 577 389 374 194 170 17 56 25 0 98 484 668 786 784 760 688 772 1120
1795 2078 1809 1668 1722 1845 1673 1578 1613 1871 1711 1586 1361 1595 1585 1605 1442 1298 1246 1240 1257 1136 824 956 1102 736 670 767 760 923 1096 1155 924 942 810 696 614 785 792 581 674 822 703 583 547 468 283 399 327 129 97 34 0 0 369 702 773 736 769 725 665 989
1966 1855 1575 1459 1505 1354 1528 1344 1619 1826 1728 1585 1504 1290 1211 1120 1109 1123 1208 1214 1082 980 759 1092 692 719 757 728 771 787 1200 1204 1252 1102 1444 1149 945 832 514 656 662 590 490 516 295 344 449 358 231 103 100 144 8 46 26 406 708 772 767 741 604 893
1918 1516 1251 1172 1093 1094 1244 1367 1417 1451 1472 1432 1445 1311 1018 997 1096 1134 1054 1099 1055 912 682 1007 864 812 975 697 695 872 1259 1435 1526 1753 1722 1666 1457 1196 505 766 422 224 327 408 400 343 416 434 364 556 653 607 541 526 328 119 344 716 818 739 648 654
1293 1078 846 774 662 863 1030 1124 1089 952 1086 802 1021 1067 976 989 1027 1001 944 1091 1079 971 710 843 862 754 890 736 764 839 866 1421 1480 1640 1680 1641 1554 1183 730 684 531 140 798 184 259 809 820 792 816 853 760 753 676 658 505 438 492 396 766 788 628 517
612 643 609 576 483 532 658 918 698 922 835 781 798 858 658 781 690 808 903 962 1039 1062 864 826 743 744 777 854 1122 924 853 909 1135 1543 1653 1277 970 652 504 966 939 195 173 329 714 1010 1000 797 978 1055 1028 939 804 800 603 678 689 617 471 663 620 514
590 469 368 513 499 731 720 764 913 1008 642 512 595 605 698 653 716 823 801 848 1078 1048 1025 925 781 722 712 1048 1220 1089 881 927 874 1079 1351 1156 508 516 672 753 1007 959 509 390 457 669 864 922 924 905 905 796 892 869 838 1018 842 677 630 507 679 667
608 628 563 385 320 597 898 961 972 714 555 474 476 616 666 618 621 644 782 1024 1014 1017 1068 1001 986 708 781 1032 1067 877 723 734 821 1006 1396 1162 708 738 709 747 1087 975 626 446 520 589 606 641 695 1013 1061 1244 1207 1115 996 1106 926 742 747 580 454 408
714 611 413 349 418 139 278 564 723 663 643 570 458 456 435 424 446 457 583 620 936 983 924 1029 911 960 919 916 1066 1095 873 909 1207 1214 1122 908 729 644 468 807 1098 1209 893 536 695 851 761 668 552 877 696 1038 1273 1093 1059 1306 1139 871 671 668 568 372
718 568 512 620 145 0 0 146 444 687 600 482 448 477 521 524 541 624 752 672 695 793 968 1057 959 879 902 915 1066 967 852 991 1254 1094 1071 901 667 604 549 506 826 1065 963 857 817 860 858 794 647 665 905 1093 1152 1273 1069 1383 940 897 960 800 513 403
538 537 458 10 0 0 0 0 0 0 152 515 418 561 640 688 584 528 539 439 430 490 789 1043 1010 844 928 1247 1129 684 751 751 771 718 946 986 934 888 570 519 641 919 829 752 640 687 703 881 908 958 954 896 1196 1000 1029 1159 680 859 873 933 500 478
641 631 438 24 3 0 0 3 0 0 0 150 367 343 303 409 546 547 516 456 560 651 902 1053 1370 1370 1184 1827 926 718 855 930 797 815 881 867 1039 930 783 738 734 967 972 890 768 615 630 829 865 820 622 589 521 1008 1270 1108 768 729 991 905 692 581
734 546 293 51 26 96 53 1 0 0 0 0 0 0 0 0 0 0 0 0 4 72 25 83 192 784 749 1226 1223 1154 1008 924 841 630 797 969 906 951 795 794 851 839 799 815 746 657 625 625 552 445 445 574 592 1219 1352 1203 989 1074 1173 896 574 544
587 524 424 352 291 66 24 64 0 0 0 0 0 0 0 0 0 0 0 39 82 3 0 0 0 0 17 229 1253 958 738 989 866 762 677 814 793 904 883 844 909 854 718 672 699 654 632 457 122 407 526 81 464 251 815 945 1042 982 783 1340 527 384
598 560 500 412 106 2 0 2 0 0 0 0 0 0 0 0 0 0 0 0 0 0 0 0 0 0 0 0 542 699 576 540 756 825 956 850 576 511 673 841 840 707 736 606 552 478 477 498 403 86 196 244 652 201 43 387 281 768 1125 1197 342 66
632 683 302 273 32 0 0 0 0 0 0 0 0 0 0 0 0 57 0 0 0 0 0 0 0 0 0 0 2 173 59 388 779 969 723 796 513 443 468 457 546 634 655 646 514 552 523 578 558 577 428 163 0 14 262 469 428 577 739 611 936 1031
623 493 270 37 1 0 0 0 0 0 0 0 0 0 0 0 0 0 0 0 0 0 0 0 0 0 0 0 0 0 3 6 0 0 0 635 597 532 279 244 130 364 462 236 409 460 419 446 574 577 478 435 630 176 410 422 64 190 993 660 948 769
612 298 245 38 30 1 0 0 0 0 0 0 0 0 0 0 0 0 0 0 0 0 0 0 0 0 0 0 0 0 0 0 0 0 0 0 0 0 15 146 65 6 5 232 228 480 510 421 460 514 467 251 498 370 445 438 395 166 85 734 534 693
545 298 331 118 101 9 0 0 0 0 0 0 0 0 0 0 0 0 0 0 0 0 0 0 0 0 0 0 0 0 0 0 0 0 0 0 0 0 0 0 0 0 24 52 28 38 43 56 96 121 246 309 405 347 330 311 445 244 40 6 0 366
578 365 403 274 197 27 2 0 0 0 1 0 0 0 0 0 0 0 0 0 0 0 0 0 0 0 0 0 0 0 0 0 0 0 0 0 0 0 0 0 0 0 0 0 12 15 3 12 20 212 160 146 261 266 285 276 204 80 0 0 0 0
625 417 417 334 200 27 1 0 0 0 0 0 0 0 0 0 0 0 0 0 0 0 0 0 0 0 0 0 0 0 0 0 0 0 0 0 0 0 0 0 0 0 0 0 0 0 0 0 0 0 229 370 403 287 165 53 43 92 61 14 0 2
572 464 533 340 127 3 0 0 0 0 0 0 0 0 0 0 0 0 0 0 0 0 0 0 0 0 0 0 0 0 0 0 0 0 0 0 0 0 0 0 0 0 0 0 0 0 0 0 0 0 0 0 0 0 0 0 0 0 0 0 0 0
460 481 480 83 0 0 0 0 0 0 0 0 0 0 0 0 0 0 0 0 0 0 0 0 0 0 0 0 0 0 0 0 0 0 0 0 0 0 0 0 0 0 0 0 0 0 0 0 0 0 0 0 0 0 0 0 0 0 0 0 0 0
486 114 452 0 2 0 0 5 15 1 0 0 0 0 0 0 0 0 0 0 0 0 0 0 0 0 0 0 0 0 0 0 0 0 0 0 0 0 0 0 0 0 0 0 0 0 0 0 0 0 0 0 0 0 0 0 0 0 0 0 0 0
515 500 502 57 66 5 0 0 34 3 2 0 0 0 0 0 0 0 0 0 0 0 0 0 0 0 0 0 0 0 0 0 0 0 0 0 0 0 0 0 0 0 0 0 0 0 0 0 0 0 0 0 0 0 0 0 0 0 0 0 0 0
513 639 557 168 82 22 11 1 15 2 0 0 0 0 0 0 0 0 0 0 0 0 0 0 0 0 0 0 0 0 0 0 0 0 0 0 0 0 0 0 0 0 0 0 0 0 0 0 0 0 0 0 0 0 0 0 0 0 0 0 0 0
427 555 324 39 90 77 0 0 96 34 0 1 8 0 0 2 0 2 1 0 0 0 0 0 0 0 0 0 0 0 0 0 0 0 0 0 0 0 0 0 0 0 0 0 0 0 0 0 0 0 0 0 0 0 0 0 0 0 0 0 0 0
386 357 402 69 157 433 10 38 282 65 0 3 10 3 2 5 6 5 7 0 0 0 0 0 0 0 0 0 0 0 0 0 0 0 0 0 0 0 0 0 0 0 0 0 0 0 0 0 0 0 0 0 0 0 0 0 0 0 0 0 0 0

ECMWFFLT2_con_mucape_021.txt.gz
CAPE
2060 2150 2240 2296 2441 2503 2648 2768 2400 2403 2358 2448 2426 2572 2386 2552 2454 2421 2279 2421 2160 1893 1897 1913 1791 1784 1709 1706 1641 1513 1316 1384 1468 1536 1563 1514 1468 1402 1330 1376 1192 1035 1040 850 755 949 739 486 499 688 976 791 612 529 484 528 524 424 364 453 523 373
2086 2186 2233 2292 2350 2471 2550 2529 2464 2291 2323 2340 2385 2354 2340 2152 2426 2205 2189 2152 1988 1842 1717 1751 1679 1752 1678 1808 1641 1452 1384 1485 1476 1435 1459 1481 1525 1475 1406 1429 1407 1316 1180 983 878 454 14 84 174 487 306 347 400 528 484 537 534 420 376 458 446 381
2078 2158 2225 2244 2308 2461 2431 2412 2439 2356 2204 2394 2369 2400 2169 2311 2058 2042 2015 1981 1863 1819 1751 1604 1733 1733 1664 1905 1769 1522 1524 1474 1530 1401 1450 1518 1548 1484 1433 1425 1504 1470 1369 1046 701 450 81 0 134 226 284 330 494 522 511 529 519 440 384 436 395 649
2003 2125 2155 2172 2244 2291 2259 2290 2302 2283 2256 2232 2163 2101 2098 2071 2036 2008 1943 1830 1673 1684 1730 1619 1999 1862 1775 1869 1769 1709 1552 1523 1609 1521 1495 1609 1581 1456 1403 1427 1492 1599 1452 1142 853 637 408 46 190 220 290 412 509 523 550 482 487 376 369 604 413 952
1996 2067 2084 2122 2120 2087 2110 2161 2155 2164 2195 2120 2054 2056 2047 2026 2006 1952 1890 1784 1648 1588 1648 1648 1794 1519 1722 1719 1695 1639 1543 1553 1495 1494 1564 1444 1465 1437 1517 1277 1370 1450 1423 1245 1024 845 569 318 204 222 271 435 495 546 540 520 415 364 371 520 409 1122
1918 1931 1941 1987 1924 2009 2053 1973 2001 2096 2130 2078 2011 1980 1976 1973 1921 1833 1751 1703 1623 1566 1586 1513 1704 1514 1512 1645 1755 1714 1650 1637 1577 1658 1638 1507 1545 1427 1356 1243 1215 1302 1329 1244 1124 958 729 417 221 189 200 396 460 525 574 481 444 451 413 443 440 1256
1816 1824 1852 1889 1886 1985 1866 1802 1872 1943 1998 2004 1912 1917 1868 1878 1834 1744 1591 1522 1518 1488 1449 1379 1414 1350 1374 1455 1657 1671 1698 1671 1570 1602 1627 1454 1508 1419 1371 1265 1152 1136 1138 1103 1017 882 655 353 180 175 196 227 349 445 536 531 486 411 413 506 622 1404
1804 1804 1815 1872 1927 1882 1801 1766 1854 2138 1984 1907 1885 1889 1820 1836 1860 1735 1543 1416 1326 1325 1322 1251 1147 1029 1162 1375 1485 1556 1521 1640 1563 1570 1562 1442 1217 1285 1318 1294 1184 1111 1057 991 876 670 443 208 202 214 144 304 410 364 490 568 526 532 469 496 698 1441
1864 1835 1806 1843 1901 1876 1883 1867 1992 2154 1984 2132 1852 1851 1826 1811 1794 1719 1594 1450 1356 1298 1112 1046 933 874 963 1113 1349 1581 1505 1390 1449 1379 1489 1331 1054 979 1073 1167 1145 1055 1044 911 797 650 452 312 275 252 151 219 338 381 398 576 580 554 544 586 776 1410
1993 1926 1859 1812 1922 1918 1892 1908 1983 2076 2012 2198 1879 1803 1807 1788 1777 1660 1593 1487 1342 1335 1300 1175 966 917 848 935 979 1347 1494 1367 1181 1095 1179 1159 908 894 911 954 1027 1042 964 881 794 661 502 408 367 313 0 0 236 365 422 461 607 556 553 572 871 1188
2143 2286 1953 1899 1925 1944 1951 1928 1966 2030 2060 2137 1955 1791 1761 1773 1720 1653 1624 1558 1432 1363 1283 1204 1126 1099 1020 944 896 934 1131 1333 1289 1133 1101 1088 933 805 729 737 750 766 784 775 757 665 585 522 455 337 0 0 0 90 358 482 639 588 595 632 842 1001
2292 2276 2170 2050 2040 2037 2030 2005 2017 2007 1969 2056 2025 1889 1820 1739 1736 1672 1552 1565 1377 1329 1145 1226 1290 1175 1030 1009 933 802 859 908 1021 1043 1060 1072 1078 1015 930 814 712 720 767 667 691 671 649 606 507 387 266 11 0 232 468 585 654 607 598 642 818 889
2466 2398 2354 2294 2240 2190 2115 2069 2067 2059 1979 2017 1971 1926 1860 1798 1745 1703 1593 1460 1302 1341 1117 1149 1344 1112 876 842 840 874 794 935 944 935 964 894 884 899 816 702 716 741 696 762 684 643 666 600 472 407 312 212 14 186 472 657 642 623 632 619 738 796
2661 2571 2517 2478 2404 2302 2192 2147 2119 2102 2068 1987 1967 1919 1875 1780 1738 1666 1561 1467 1421 1382 1232 1121 1316 1050 856 684 687 756 764 819 885 890 944 855 873 792 757 745 761 622 764 740 726 658 634 522 478 407 337 264 41 12 412 613 640 678 653 634 630 695
2674 2609 2557 2446 2388 2315 2254 2218 2178 2160 2134 2107 2080 2030 1904 1848 1777 1717 1688 1463 1427 1314 1237 1216 1284 1069 804 585 572 700 742 916 1029 1098 1040 860 905 843 810 806 675 670 663 675 691 703 593 508 512 424 492 514 435 358 370 520 608 686 695 715 724 702
2607 2540 2460 2440 2404 2368 2329 2295 2260 2226 2197 2151 2091 1954 1900 1836 1794 1780 1615 1416 1266 1169 1100 1039 951 680 526 502 635 747 807 916 1004 1059 1137 1094 1060 1007 852 775 723 689 616 514 460 452 588 632 481 518 632 626 543 501 487 413 426 538 623 676 679 679
2558 2541 2426 2372 2414 2383 2351 2316 2283 2266 2196 2120 2017 1949 1847 1738 1564 1321 1174 1176 1090 1090 1040 804 762 610 581 578 937 910 902 830 904 1075 1113 1168 1307 1195 1015 807 738 660 601 672 612 657 697 685 812 815 792 866 695 518 516 475 402 420 500 569 691 710
2444 2459 2355 2204 2154 2114 2144 2175 2179 2135 2061 1977 1945 1881 1795 1597 1374 1242 1122 1110 961 939 1011 896 876 586 563 525 823 1023 1077 1110 967 986 1035 1127 1239 1233 1168 835 750 720 838 772 747 758 741 768 889 980 806 801 857 523 516 466 300 350 263 527 705 779
2348 2296 2298 2147 1973 1838 1751 1806 1742 1662 1609 1667 1607 1370 1188 1035 956 912 888 898 894 913 964 867 755 603 449 626 770 960 1066 1153 1098 1036 1002 982 1055 1266 1254 922 787 754 945 873 779 707 640 706 831 841 833 774 738 491 341 444 390 230 144 237 372 598
2297 2257 2138 1832 1452 1420 1569 1439 1286 1212 1091 949 813 766 737 749 655 714 793 890 878 859 934 890 768 589 655 704 762 875 962 1007 991 956 970 1068 1207 1332 1214 902 765 727 663 781 736 656 694 708 648 532 502 591 924 785 296 174 437 290 102 203 161 147
2214 2140 1339 963 1124 1322 1263 1067 1005 772 646 670 745 724 579 514 515 597 655 691 833 929 889 837 667 620 690 649 712 707 786 844 860 903 1119 1266 1285 1200 1058 852 749 729 674 700 702 700 700 625 627 641 569 481 510 762 880 529 396 221 224 222 97 120
1987 1249 855 887 1098 1189 1073 966 763 593 567 624 585 471 436 395 409 412 475 670 768 743 620 610 746 607 546 560 596 569 568 620 668 768 849 930 1098 1055 980 906 758 692 755 650 622 781 733 676 600 694 727 503 343 430 695 845 803 543 365 57 14 129
1527 1081 848 888 987 977 991 878 655 476 492 477 480 507 435 215 324 369 398 389 374 362 476 663 810 731 644 619 641 536 479 581 675 723 802 812 919 1019 961 897 827 734 662 791 746 719 777 754 518 710 584 430 361 83 559 423 661 726 636 186 5 471
1003 840 725 814 798 822 928 820 657 511 490 412 453 410 21 0 0 0 22 232 250 260 277 274 431 811 805 824 637 583 492 541 572 629 742 779 766 942 1042 923 705 795 784 553 859 682 760 692 611 564 430 186 181 0 0 22 369 571 682 493 729 495
765 664 631 682 653 688 762 753 675 562 342 103 0 0 0 0 0 2 0 0 0 0 0 0 0 364 696 746 631 593 490 531 531 656 773 861 816 926 992 903 846 648 724 914 916 899 810 796 762 658 525 309 5 0 0 62 305 346 543 707 533 689
486 456 438 430 408 482 547 487 459 376 246 57 0 0 0 0 0 0 0 0 0 0 0 0 588 723 778 755 663 538 504 484 556 628 710 719 599 751 862 872 889 867 936 924 833 774 721 766 786 738 719 603 349 188 122 172 0 72 481 493 529 425
147 0 144 124 0 230 298 333 368 290 225 0 0 0 0 0 0 0 0 0 0 0 0 0 46 245 240 97 0 170 481 528 622 598 10 114 404 480 604 724 808 855 827 821 741 714 636 576 578 608 548 523 422 356 0 0 20 5 258 314 384 226
259 5 0 0 0 36 289 327 324 277 0 0 0 0 0 0 0 0 0 0 0 0 0 0 0 0 0 0 0 0 412 573 552 18 0 0 0 0 0 347 526 585 621 636 600 540 618 582 464 393 501 501 474 430 342 215 184 29 19 0 2 0
438 371 262 277 0 0 278 327 288 37 0 0 0 0 0 0 0 0 0 0 0 0 0 0 0 0 0 0 0 0 113 454 0 0 0 0 0 0 0 0 0 0 5 0 436 515 560 493 384 406 352 498 490 407 362 360 314 252 173 0 0 0
568 382 299 348 302 232 245 262 20 0 0 0 0 0 0 0 0 0 0 0 0 0 0 0 0 0 0 0 0 0 0 0 0 0 0 0 0 0 0 0 0 0 0 0 33 393 276 267 373 430 576 607 520 445 292 171 167 151 0 0 0 0
396 82 160 403 416 402 0 0 0 0 0 0 0 0 0 0 0 0 0 0 0 0 0 0 0 0 0 0 0 0 0 0 0 0 0 0 0 0 0 0 0 0 0 0 0 0 0 49 299 353 408 512 520 272 108 91 0 12 0 0 0 0
366 441 466 462 438 416 349 0 0 0 0 0 0 0 0 0 0 0 0 0 0 0 0 0 0 0 0 0 0 0 0 0 0 0 0 0 0 0 0 0 0 0 0 0 0 0 0 0 22 108 97 108 142 2 0 0 0 0 0 0 0 0
327 468 520 423 21 20 18 0 0 0 0 0 0 0 0 0 0 0 0 0 0 0 0 0 0 0 0 0 0 0 0 0 0 0 0 0 0 0 0 0 0 0 0 0 0 0 0 0 0 0 0 0 0 0 0 0 0 0 0 0 0 0
382 379 510 178 0 10 24 2 0 0 0 0 0 0 0 0 0 0 0 0 0 0 0 0 0 0 0 0 0 0 0 0 0 0 0 0 0 0 0 0 0 0 0 0 0 0 0 0 0 0 0 0 0 0 0 0 0 0 0 0 0 0
781 642 514 333 0 0 3 1 1 1 0 0 0 0 0 0 0 0 0 0 0 0 0 0 0 0 0 0 0 0 0 0 0 0 0 0 0 0 0 0 0 0 0 0 0 0 0 0 0 0 0 0 0 0 0 0 0 0 0 0 0 0
1336 1045 664 402 70 48 48 53 52 65 20 0 0 0 0 0 0 0 0 0 0 0 0 0 0 0 0 0 0 0 0 0 0 0 0 0 0 0 0 0 0 0 0 0 0 0 0 0 0 0 0 0 0 0 0 0 0 0 0 0 0 0
1656 1409 1241 515 289 81 22 165 42 121 89 0 0 0 0 0 0 0 0 0 0 0 0 0 0 0 0 0 0 0 0 0 0 0 0 0 0 0 0 0 0 0 0 0 0 0 0 0 0 0 0 0 0 0 0 0 0 0 0 0 0 0

ECMWFFLT2_con_mucape_024.txt.gz
CAPE
2219 2258 2291 2233 2113 2221 2368 2468 2462 2588 2554 2595 2520 2443 2361 2542 2466 2456 2164 2244 1992 1870 1839 1779 1770 1624 1712 1687 1609 1579 1524 1621 1677 1595 1565 1520 1474 1376 1190 1183 1124 1058 1015 919 852 617 625 516 715 620 616 766 945 892 692 721 523 464 400 616 691 447
2242 2287 2268 2249 2213 2171 2252 2254 2296 2402 2373 2419 2482 2482 2428 2334 2024 2252 2123 2004 1929 1933 1864 1811 1747 1764 1694 1847 1555 1568 1622 1702 1737 1693 1645 1590 1590 1477 1362 1328 1398 1360 1138 1055 555 186 6 134 375 364 444 386 543 547 630 759 570 447 461 522 520 448
2130 2195 2260 2258 2262 2300 2309 2270 2348 2339 2284 2478 2530 2245 2273 2061 2222 2099 2055 1963 1852 1812 1854 1797 1744 1673 1802 1895 1611 1516 1600 1713 1693 1701 1670 1644 1615 1566 1428 1443 1483 1421 1264 836 562 444 392 0 0 397 396 464 533 548 588 694 587 476 439 505 468 550
2015 2140 2178 2250 2305 2398 2366 2336 2330 2357 2315 2371 2365 2293 2270 2217 2153 2061 1999 1909 1808 1721 1712 1705 1487 1286 1469 1755 1657 1587 1557 1638 1656 1605 1643 1777 1608 1554 1489 1363 1534 1517 1151 994 821 621 522 361 55 360 390 483 509 577 570 650 603 502 458 716 483 702
2017 2185 2213 2304 2371 2354 2327 2339 2326 2308 2298 2280 2270 2182 2190 2148 2096 2016 1944 1841 1835 1799 1667 1637 1319 1370 1733 1690 1527 1485 1522 1523 1462 1509 1554 1496 1446 1488 1444 1262 1362 1364 1336 1047 791 725 650 442 82 329 435 520 507 570 571 620 608 526 449 578 471 851
2114 2176 2216 2214 2351 2296 2311 2257 2236 2150 2172 2198 2098 2031 2039 2113 2043 1985 1925 1809 1713 1749 1685 1657 1706 1588 1772 1702 1726 1717 1621 1630 1588 1596 1556 1501 1481 1396 1414 1307 1238 1227 1253 1063 844 756 722 533 282 333 434 533 546 564 619 568 584 530 391 498 482 970
2097 2180 2195 2185 2280 2121 2126 2053 2005 1995 1974 2023 2038 1887 1925 2037 1980 1915 1885 1841 1691 1632 1619 1577 1797 1660 1647 1787 1814 1785 1750 1759 1696 1655 1583 1610 1407 1396 1259 1249 1214 1065 1007 984 882 773 624 401 230 321 448 498 542 579 597 596 544 480 353 389 524 1088
2098 2139 2159 2134 2109 2057 2030 1913 1991 1885 1926 1885 1899 1794 1771 1949 1926 1847 1773 1765 1670 1616 1544 1497 1644 1644 1550 1668 1690 1708 1785 1734 1694 1604 1452 1453 1362 1353 1234 1288 1161 1106 1010 910 817 664 496 346 232 303 284 354 463 544 613 604 491 433 439 469 436 1192
2013 2028 2008 1969 2018 1972 1885 1805 1877 1926 1840 2070 1870 1678 1722 1886 1863 1773 1674 1633 1576 1559 1497 1407 1292 1427 1443 1458 1552 1547 1686 1633 1630 1557 1270 1071 1059 987 985 994 1033 985 922 838 737 650 526 432 377 285 226 396 420 447 624 659 611 480 530 539 521 982
1884 1857 1880 1901 1858 1802 1722 1722 1852 1990 1804 2023 1869 1769 1833 1842 1836 1747 1648 1557 1508 1391 1379 1262 1208 1093 1135 1338 1475 1601 1581 1500 1398 1255 1148 1019 899 814 722 709 679 668 666 670 640 600 560 530 497 391 215 283 374 463 514 699 654 588 581 609 607 943
1834 1958 1796 1877 1724 1664 1639 1717 1892 1974 1814 2007 1938 1812 1855 1786 1776 1772 1705 1646 1526 1497 1299 1258 1121 1133 1055 1063 1214 1505 1612 1519 1318 1166 1042 1035 1003 960 861 784 730 608 554 602 621 573 567 572 510 440 316 229 301 415 386 485 656 643 620 650 663 924
1917 1971 1881 1808 1795 1536 1568 1603 1764 1750 1752 1984 1996 1868 1872 1830 1709 1779 1718 1535 1385 1426 1460 1252 993 1221 1230 1238 1175 1095 1206 1319 1369 1269 1250 1152 1087 1008 932 834 667 565 586 590 629 636 572 568 518 458 409 247 133 261 297 436 662 724 628 684 665 912
2031 1983 1952 1851 1869 1759 1793 1823 1728 1794 1733 1974 2039 1930 1871 1851 1744 1494 1527 1485 1354 1391 1358 1224 1098 926 1137 1095 1064 1160 1027 923 920 882 863 834 771 749 713 644 603 590 583 521 561 631 589 584 525 479 437 306 150 103 232 522 692 783 656 673 690 884
2151 2116 2028 1880 1924 1886 1893 1929 1970 2015 2015 2017 2056 2012 1985 1791 1642 1598 1472 1447 1383 1364 1231 1284 1186 1146 1081 936 908 834 863 844 775 757 839 840 787 702 639 608 594 615 764 538 640 672 627 604 531 487 472 396 276 137 384 562 730 799 696 711 701 814
2423 2307 2236 2116 2019 1989 2087 2190 2137 2082 2064 2031 2095 1942 1788 1632 1753 1378 1467 1374 1149 1181 1160 1227 1213 1120 908 805 708 609 527 618 693 905 968 942 749 691 662 655 653 593 544 556 638 687 678 617 530 502 495 454 344 316 443 592 763 758 724 745 711 732
2531 2510 2455 2405 2330 2396 2409 2295 2212 2182 2191 2178 2140 2090 1707 1611 1510 1278 1496 1295 1368 1231 1306 1124 974 882 618 451 623 480 500 612 712 902 1019 1011 859 810 728 722 664 560 543 526 494 502 501 514 512 516 497 459 458 433 454 588 695 702 700 745 736 748
2625 2687 2706 2608 2620 2559 2444 2332 2260 2268 2227 2202 2204 2122 1958 1755 1570 1510 1279 1217 1217 1113 1140 1047 972 818 576 477 479 462 496 660 762 856 958 1069 1043 1046 900 749 643 579 574 501 402 434 520 524 550 571 507 468 537 487 442 456 499 557 616 670 706 733
2784 2802 2739 2681 2577 2399 2325 2216 2162 2216 2222 2178 2178 2010 1884 1825 1634 1424 1242 1160 1116 1074 1072 1120 1034 961 774 454 358 575 651 757 824 763 859 1000 1018 1086 1114 900 704 614 606 478 461 534 574 598 613 597 515 483 428 368 366 372 394 482 569 616 681 690
2758 2774 2701 2575 2398 2228 2117 2034 1999 2072 1989 1907 1675 1581 1732 1598 1254 1066 1044 949 875 856 978 1057 1018 927 742 504 439 490 596 786 1007 1019 930 860 924 928 982 1029 786 688 642 593 558 597 662 695 658 620 522 484 398 342 303 290 242 142 187 336 548 719
2785 2747 2661 2491 2239 2127 1959 1810 1766 1838 1843 1702 1490 1356 952 819 776 698 762 815 832 880 937 963 902 813 684 496 464 546 676 777 870 994 941 838 738 832 957 1035 901 746 686 628 664 690 757 764 655 539 454 422 376 344 276 277 156 134 92 129 136 177
2672 2644 2543 2288 2075 1788 1531 1452 1466 1493 1332 1115 930 773 707 569 579 643 757 811 820 846 803 896 841 748 567 548 607 682 740 865 928 897 804 836 980 1030 1030 1068 989 809 728 716 690 676 701 634 574 159 34 46 344 530 552 159 121 110 81 1 3 64
2504 2524 2373 2104 1804 1558 1381 1369 1323 1195 854 718 739 574 474 512 548 540 596 715 844 756 655 613 612 517 584 575 587 612 658 726 735 724 676 832 990 1034 1045 967 875 772 696 733 671 641 624 527 470 485 375 324 80 689 692 688 452 337 111 4 0 121
2352 2356 2246 1894 1452 1288 1292 1213 934 668 673 629 510 426 228 351 406 477 509 528 602 683 635 572 662 592 487 426 440 430 423 440 506 542 595 685 798 894 903 871 811 734 675 618 498 261 570 448 446 0 116 6 62 283 422 465 479 484 324 92 359 388
2218 2187 1925 1286 1113 1190 1197 895 612 575 556 548 505 319 32 268 20 0 0 0 0 19 304 456 676 760 574 535 529 429 0 451 524 576 610 643 669 753 778 780 768 746 646 585 395 233 498 0 410 245 381 248 133 99 41 62 345 425 551 742 521 312
2084 1983 1516 1026 1082 1159 979 721 515 460 438 426 364 42 0 0 0 7 0 0 0 0 0 0 258 818 731 686 636 467 0 72 464 534 601 652 626 678 823 852 785 736 652 567 446 164 267 96 508 509 304 33 0 0 0 0 324 424 467 636 645 736
1809 1664 1412 1005 1051 955 719 603 530 393 337 255 0 0 0 0 0 0 0 0 0 0 0 0 0 529 699 731 577 472 0 18 483 579 624 662 627 695 800 844 814 640 532 446 407 25 507 276 20 283 526 366 338 296 0 0 0 75 264 507 418 691
1490 1417 1221 938 855 742 659 611 570 433 312 0 0 0 0 0 0 0 0 0 0 0 0 0 432 542 620 655 561 454 380 415 190 172 327 343 476 643 758 779 662 554 504 529 281 319 316 468 591 535 566 517 424 302 0 0 0 0 276 141 83 203
1320 1244 978 813 719 676 646 647 559 426 56 0 0 0 0 0 0 0 0 0 0 0 0 0 197 476 442 309 196 350 424 454 233 142 132 9 28 236 506 579 559 605 603 550 79 450 466 500 496 439 483 446 154 0 0 0 0 0 0 117 0 0
1065 937 818 650 619 654 611 561 394 91 0 0 0 0 0 0 0 0 0 0 0 0 0 0 0 0 0 0 50 365 484 375 195 120 0 0 0 0 0 102 406 384 362 409 328 372 410 445 358 335 383 344 316 302 279 275 53 0 0 0 0 0
868 790 619 432 402 460 429 284 0 0 0 0 0 0 0 0 0 0 0 0 0 0 0 0 0 0 0 0 46 325 462 231 107 0 0 0 0 0 0 0 0 0 246 331 362 372 334 334 336 313 287 323 354 335 281 246 190 40 4 3 1 0
719 579 394 60 0 0 0 0 0 0 0 0 0 0 0 0 0 0 0 0 0 0 0 0 0 0 0 0 0 53 44 0 0 0 0 0 0 0 0 0 0 0 0 0 0 34 216 290 363 388 402 443 361 250 33 102 0 0 0 0 0 0
482 388 106 0 0 17 14 1 0 0 0 0 0 0 0 0 0 0 0 0 0 0 0 0 0 0 0 0 0 0 0 0 0 0 0 0 0 0 0 0 0 0 0 0 0 0 0 6 194 224 261 215 27 0 0 0 0 0 0 0 0 0
406 354 310 0 0 0 0 0 0 0 0 0 0 0 0 0 0 0 0 0 0 0 0 0 0 0 0 0 0 0 0 0 0 0 0 0 0 0 0 0 0 0 0 0 0 0 0 0 0 0 0 0 0 0 0 0 0 0 0 0 0 0
410 320 322 0 4 28 1 0 203 0 0 0 0 0 0 0 0 0 0 0 0 0 0 0 0 0 0 0 0 0 0 0 0 0 0 0 0 0 0 0 0 0 0 0 0 0 0 0 0 0 0 0 0 0 0 0 0 0 0 0 0 0
290 295 200 5 50 77 89 495 466 0 0 0 0 2 24 0 0 0 0 0 0 0 0 0 0 0 0 0 0 0 0 0 0 0 0 0 0 0 0 0 0 0 0 0 0 0 0 0 0 0 0 0 0 0 0 0 0 0 0 0 0 0
634 424 262 98 197 754 748 264 46 92 0 1 13 26 7 0 0 0 0 0 0 0 0 0 0 0 0 0 0 0 0 0 0 0 0 0 0 0 0 0 0 0 0 0 0 0 0 0 0 0 0 0 0 0 0 0 0 0 0 0 0 0
798 670 479 562 418 637 614 449 40 5 13 23 49 50 10 0 0 0 0 0 0 0 0 0 0 0 0 0 0 0 0 0 0 0 0 0 0 0 0 0 0 0 0 0 0 0 0 0 0 0 0 0 0 0 0 0 0 0 0 0 0 0

ECMWFFLT2_con_mucape_027.txt.gz
CAPE
2108 2139 2087 2136 2163 2074 1847 2462 2483 2358 2402 2367 2444 2433 2492 2492 2396 2287 2221 2162 2046 2295 2450 2226 1870 1739 1828 1690 1785 1676 1657 1754 1792 1711 1572 1416 1469 1332 1266 1274 1229 1069 1188 1035 748 646 631 633 582 594 752 1178 1556 1710 1630 1352 1173 937 809 872 840 830
2130 2052 2028 2048 2135 2203 2224 2322 2281 2350 2394 2556 2469 2424 2327 2148 2160 2302 2149 2358 2500 2503 2466 2300 1969 1772 1559 1648 1744 1697 1800 1817 1874 1791 1610 1465 1457 1445 1485 1471 1396 1356 1085 744 624 545 596 425 438 514 648 618 1503 1696 1601 1429 1221 883 842 939 839 883
1759 1951 2074 2024 2172 2267 2162 2164 1696 2674 2297 2218 2230 2249 2025 1928 2281 2513 2574 2452 2492 2468 2397 2311 2044 1692 1678 1815 1840 1782 1762 1843 1798 1752 1691 1606 1571 1501 1440 1398 1513 1357 922 654 918 624 457 343 326 319 456 1134 1455 1474 1531 1528 1330 1028 809 888 846 815
1795 2046 2129 2122 2306 2234 2162 2552 2349 2418 2438 2302 2295 2133 2080 2123 2112 2247 2440 2460 2478 2603 2506 2540 1554 1725 1703 1773 1800 1830 1782 1777 1672 1644 1586 1506 1614 1534 1152 1218 1258 1284 1109 939 802 644 346 349 340 322 713 1271 1413 1434 1453 1541 1290 1072 957 808 762 796
1861 2085 2087 2269 2226 1862 1802 2279 1973 2140 2410 2186 1835 2025 2154 2099 2060 2032 2165 2087 1929 2216 2178 2036 2001 1732 1758 1919 2001 1855 1709 1452 1380 1420 1735 1332 1059 1239 1420 1642 1414 1087 1033 852 832 892 715 524 474 402 538 1025 1379 1415 1426 1483 1421 1186 1157 995 1034 872
1766 1914 2036 2105 1854 1932 1884 1746 1860 2449 2176 2092 2028 1940 2018 1857 2052 2050 1832 1802 1893 2087 1945 2004 2324 2206 1863 1928 1858 1739 1529 1537 1520 1422 1523 1115 1111 1123 1040 815 857 905 934 854 783 764 892 776 586 566 485 689 1348 1482 1450 1427 1409 1457 1368 1202 1119 993
1519 1709 1890 2153 1831 1463 1780 1873 2219 2296 1747 1795 2020 1709 1910 1989 1823 1980 2053 1841 1739 1786 1972 2272 2248 2092 2022 2030 2043 1880 1668 1622 1446 1300 1360 1224 1075 1030 934 960 1050 949 968 961 745 794 785 719 734 458 519 496 973 1364 1487 1365 1416 1513 1444 1276 1119 1084
1636 1893 1874 2015 2122 1567 1820 1733 1676 1330 1272 1402 1603 1640 1565 1526 1702 1264 1938 1943 2013 2020 2033 2095 2255 2053 1846 2134 2089 2164 1552 1540 1442 1299 1273 1008 948 832 987 1089 1154 1107 929 830 712 767 734 709 805 722 543 563 575 1160 1488 1378 1384 1501 1476 1303 1141 1294
1483 1586 1489 1500 1455 1531 1759 1736 1453 1416 1515 1596 1554 1410 1636 1804 1823 1852 1664 1849 1855 2132 2177 2154 2112 2226 2062 2088 1810 1642 1713 1517 1403 1238 1070 987 963 827 990 1053 1065 924 918 804 784 860 818 787 854 735 585 476 561 726 1346 1514 1497 1469 1342 1311 1159 1414
1212 1077 1114 1134 1466 1342 1583 1538 1598 1693 1598 1582 1478 1479 1639 1668 1488 1400 1609 1931 2152 2280 2018 2085 1966 1993 2072 2064 1934 1797 1752 1573 1421 1267 1162 1082 1176 1270 1254 1177 1066 931 653 757 700 943 957 783 556 631 548 417 607 654 1128 1500 1563 1395 1379 1440 1489 1516
1173 1236 1345 1102 1177 1330 1571 1513 1771 1284 1337 1689 1622 1451 1586 1767 1478 1378 1424 1184 1618 1703 1725 1893 1752 1724 2150 2172 1892 1797 1634 1531 1432 1261 1332 1378 1508 1467 1464 1437 1314 1090 895 772 875 1032 827 744 607 525 581 375 488 866 1046 1327 1495 1474 1370 1466 1477 1660
1050 1377 1348 1032 1064 1018 978 1252 1832 1808 1745 2034 1849 1453 1427 1422 1462 1123 1202 1239 1341 1458 1500 1401 1213 1390 1674 1735 1788 1776 1475 1506 1491 1504 1537 1407 1519 1432 1445 1160 1270 1334 1436 1328 1227 1191 1071 840 783 566 604 475 525 888 1095 1185 1374 1599 1551 1697 1527 1490
1401 1432 1230 1038 963 1074 1247 1527 1906 1750 1754 1826 1592 1212 1225 928 1213 945 874 772 1244 1298 1522 1319 999 1112 1240 1334 1295 1233 1245 1482 1463 1589 1612 1766 1648 1660 1485 1510 1529 1362 1397 1564 1592 1325 1004 1135 1034 994 932 682 973 896 944 1014 1402 1654 1742 1666 1573 1460
1633 1491 1330 1189 1129 1407 1559 1762 1852 1836 1780 1699 1456 1271 1306 1122 898 947 1105 1030 1017 1325 1313 1431 1316 1071 994 1184 1179 1248 1440 1296 1297 1266 1504 1507 1647 1694 1537 1468 1336 1211 1246 1263 1366 1367 1267 1180 1078 1097 1153 962 1124 1544 1308 1137 1510 1727 1834 1717 1648 1576
1468 1536 1445 1418 1477 1556 1738 1848 1851 1873 1958 1540 1455 1388 1246 1262 1314 1316 1081 1260 1203 1234 1238 1328 1256 1228 1168 1062 1188 1356 1250 1310 1154 1178 1400 1593 1649 1719 1601 1449 1316 1115 1329 1428 1329 1248 1195 1348 1273 1218 1546 1644 1213 1165 1475 1534 1590 1676 1582 1848 1882 1555
1532 1308 1231 1334 1581 1669 1852 1913 1889 1846 1741 1642 1579 1512 1550 1430 1312 1169 1107 1047 1087 1179 1255 1229 1091 1244 1277 1225 1083 1170 1077 990 1058 1164 1342 1489 1284 1566 1679 1721 1464 1410 1333 1199 1214 1435 1389 1413 1438 1515 1686 1789 1743 1542 1680 1549 1554 1458 1552 1602 1394 1815
1702 1549 1377 1038 1680 1875 1916 2001 1991 2053 1864 1909 1815 1733 1537 1449 1311 1212 1177 1034 1188 1264 1172 1214 1128 1121 1109 1056 863 780 826 1016 1055 1113 1300 1431 1477 1606 1696 1909 1749 1509 1476 1666 1508 1975 1884 1612 1577 1782 1776 1856 1676 1702 1580 1614 1651 1653 1285 1567 1606 1422
1921 1430 1303 1458 1898 2190 2353 2237 2268 2145 2154 1921 1732 1693 1587 1513 1156 1098 1094 1072 1125 1184 1164 1144 1029 1085 920 760 986 990 830 938 904 939 1090 1276 1633 1477 1664 1794 1759 1584 1518 1468 1699 1683 1469 1594 1545 1455 1524 1491 1336 1215 1319 1552 1613 1457 1606 1546 1618 1619
2087 2012 2071 2017 2268 2367 2285 2235 2150 2090 1926 1795 1676 1437 1312 1285 1169 997 986 921 866 892 982 1089 1065 906 971 983 882 852 861 747 844 910 1131 1226 1431 1367 1564 1912 1712 1236 1246 1596 1835 1734 1621 1448 1392 1220 1002 931 1185 1162 1094 1118 1350 1452 1438 1519 1446 1278
2376 2481 2479 2485 2419 2277 2036 1962 1691 1638 1547 1546 1193 1092 958 936 854 922 970 916 943 1062 1042 1030 944 861 907 801 862 858 799 722 820 926 1269 1427 1248 1382 1567 1570 1532 1211 1058 914 936 1208 1311 1062 855 724 628 1073 970 904 919 938 1322 1230 1330 1244 1258 1082
2628 2709 2764 2623 2296 2026 1697 1429 1391 1437 1450 1303 1206 995 799 702 772 908 1036 1061 1145 1083 1087 976 932 799 898 873 808 831 751 710 781 998 1179 1377 1200 1158 1290 1382 1009 1175 1098 1043 791 936 855 1031 809 680 765 966 828 802 740 706 947 1236 1252 1216 1194 1098
2760 2708 2707 2596 2309 1996 1537 1488 1475 1462 1346 1191 1295 1234 1135 951 832 740 774 914 906 999 1032 981 933 688 690 1023 986 1002 789 796 856 886 898 842 860 982 1062 1031 1038 926 1114 1336 842 698 676 625 497 567 830 709 767 963 811 838 754 771 974 1116 1337 1248
2709 2683 2645 2557 2198 1743 1514 1198 1267 1266 1180 679 614 678 781 656 694 792 833 811 799 857 888 973 1010 814 789 915 917 952 774 542 521 565 668 720 741 888 944 970 1313 1460 819 811 711 698 719 1120 609 600 751 531 572 828 773 750 890 817 689 726 870 1030
2614 2599 2503 2479 2160 1717 1455 1258 1076 786 637 616 524 494 542 572 551 488 359 377 440 601 972 1070 1033 971 1030 904 866 784 419 372 457 489 528 664 660 704 790 1008 1127 1293 1389 1148 859 694 584 598 496 335 431 580 424 576 615 528 860 703 768 726 823 859
2330 2439 2480 2421 2043 1482 1320 1020 698 623 509 408 384 387 294 176 228 113 28 78 15 41 278 722 1165 1150 989 878 631 476 400 354 427 472 515 537 616 619 656 734 902 1024 1168 1438 1009 882 570 482 440 721 626 118 188 305 646 705 604 632 769 725 776 824
2032 2250 2353 2281 1781 1190 1125 621 610 671 700 649 477 416 420 262 168 209 53 0 0 7 144 512 955 1221 1176 773 481 363 352 445 431 422 576 647 644 526 566 768 730 952 792 936 1150 826 799 379 358 412 903 990 989 1058 694 718 878 443 539 528 563 488
1802 2086 2216 1996 1242 1038 924 974 1245 1232 1033 872 603 340 172 83 162 5 0 0 1 22 54 488 643 980 1014 680 462 355 457 503 450 360 330 399 473 604 652 803 786 804 840 637 763 711 960 561 282 326 334 202 232 308 1504 656 741 824 644 84 0 256
1626 1931 2069 1772 1266 989 928 1000 1027 1026 1039 901 674 314 199 66 0 0 0 0 0 7 9 376 456 532 683 895 684 432 466 715 732 485 414 466 396 504 542 658 606 864 781 880 910 861 666 637 933 253 254 266 283 661 952 882 1041 999 624 79 0 0
1460 1768 1854 1607 1240 941 886 910 992 906 718 491 433 200 56 0 0 0 0 0 0 0 3 1 103 133 243 692 857 916 846 934 908 705 418 474 449 378 544 542 697 856 913 725 566 572 551 456 969 838 683 726 890 942 826 846 754 696 692 59 0 0
1379 1588 1637 1384 1119 818 690 734 834 894 676 376 260 121 26 0 0 0 0 0 0 0 0 8 8 14 135 308 564 599 565 577 608 343 209 302 240 306 283 514 569 666 624 495 338 512 566 448 677 768 862 970 922 715 742 688 521 318 297 89 7 0
1385 1540 1432 1220 948 725 578 696 698 930 843 515 350 173 26 0 0 0 0 0 1 0 0 0 10 2 5 36 166 425 279 162 210 136 128 242 433 254 314 314 182 301 448 489 247 161 362 348 337 546 769 874 808 695 807 834 539 288 86 6 2 1
1506 1427 1181 985 828 625 557 417 563 880 919 611 367 292 171 24 4 0 2 0 0 2 0 0 10 19 0 0 0 1 0 7 26 113 121 78 53 66 26 15 44 162 184 217 221 243 244 175 268 359 286 125 26 30 55 54 8 33 44 8 0 0
1458 1196 959 842 678 470 458 215 388 646 669 486 398 295 150 45 1 0 0 0 0 6 13 37 1 0 0 0 0 0 1 5 4 3 0 1 0 0 0 0 7 19 87 235 216 210 276 363 322 187 0 0 0 0 0 0 0 0 1 1 0 0
1317 1037 846 716 426 262 288 278 436 626 532 354 375 281 157 53 1 7 8 2 0 2 18 26 0 0 0 0 0 0 0 0 0 0 0 0 0 0 0 0 1 7 2 0 0 0 0 0 0 0 0 0 0 0 0 0 0 0 0 0 0 0
851 834 748 517 397 445 492 544 536 819 696 686 602 439 682 503 16 0 0 0 0 0 0 0 0 0 0 0 0 0 0 0 0 0 0 0 0 0 0 0 0 0 0 0 0 0 0 0 0 0 0 0 0 0 0 0 0 0 0 0 0 0
524 598 603 415 520 825 887 380 185 627 686 578 435 562 260 0 0 0 0 1 0 0 0 0 0 0 0 0 0 0 0 0 0 0 0 0 0 0 0 0 0 0 0 0 0 0 0 0 0 0 0 0 0 0 0 0 0 0 0 0 0 0
586 588 437 338 516 944 851 373 395 538 440 405 402 359 35 0 1 5 0 1 0 0 0 0 0 0 0 0 0 0 0 0 0 0 0 0 0 0 0 0 0 0 0 0 0 0 0 0 0 0 0 0 0 0 0 0 0 0 0 0 0 0

ECMWFFLT2_con_mucape_030.txt.gz
CAPE
897 1645 1050 2125 2349 1758 1850 1303 1762 2025 1696 2077 2158 2201 2158 2145 2068 2042 2068 2073 1900 1918 2057 1836 1724 1486 1807 1800 1826 1670 1638 1575 1522 1450 1435 1484 1411 1211 1198 1247 1238 1244 867 984 834 828 759 751 744 723 835 1583 1799 1876 1543 1548 1347 1176 1048 948 861 1076
1828 1070 1274 964 1913 1884 1401 1041 1093 1810 1474 1852 2180 2239 1768 1260 1674 1855 1960 1955 2292 2122 1986 1976 1987 1311 1598 1197 1705 1703 1703 1594 1468 1411 1469 1352 1319 1389 1326 1383 1350 1253 726 897 791 660 385 463 462 746 989 1224 1976 1708 1499 1323 1274 1041 1198 1073 1026 767
1580 1521 1605 1230 966 1314 974 1048 1075 1050 1728 1356 1573 1592 1330 1320 1472 1462 1087 2065 2201 2201 1851 1993 1442 1501 1686 1081 1949 1847 1865 1642 1501 1472 1416 1483 1412 1467 1513 1479 1480 1306 1330 136 826 279 249 284 497 513 719 1400 1657 1565 1414 1315 1162 1011 1072 1088 1115 1089
1441 1559 1745 1690 999 951 871 1082 1496 1120 1002 966 999 1118 1045 1190 1486 1749 2204 2116 2058 2074 1966 2032 1670 1672 1523 1550 1932 1838 1785 1740 1672 1578 1644 1637 1650 1515 1492 1506 1501 1089 1452 789 454 268 280 264 420 902 1139 1260 1433 1468 1492 1378 1109 1032 1179 863 775 1217
1538 1675 1603 2057 1432 1242 1318 1714 1308 1008 1018 942 963 845 1456 1546 1836 1656 1987 2093 1926 2108 1992 1865 1563 1538 1597 1619 942 1406 1541 887 1224 1265 1598 620 699 862 1413 806 856 1046 831 407 439 439 400 357 426 800 952 1279 1294 1522 1424 1239 1270 1238 1244 1225 932 1236
1572 1634 1528 1240 1334 1333 1067 901 941 718 1006 1018 945 1463 2029 1438 1328 1393 1604 1745 1958 2074 1891 1896 1851 1687 1661 1827 1698 1429 1048 1389 606 1047 928 866 770 593 1086 1104 900 800 667 478 353 389 429 421 518 634 691 1174 1578 1680 1343 1301 1234 1184 1331 1316 1079 1256
1452 1447 922 997 1062 1047 947 1115 1370 991 1134 1070 1158 1437 1511 1427 1005 1084 1072 1341 1562 1213 1265 1485 1791 1706 1608 1877 1998 1817 1531 1223 1167 919 608 866 772 659 527 645 730 732 576 474 374 367 352 397 542 616 876 974 1644 1452 1412 1157 1268 1464 1325 1334 1206 1471
1430 1169 1054 849 946 885 1116 1042 1090 1126 1170 1132 1323 1402 1505 1375 1082 1168 1016 1256 1072 1088 990 430 1429 1823 1853 1932 1983 1773 1488 1251 1087 964 538 622 719 1017 825 771 788 696 504 421 388 411 328 271 471 674 730 762 1496 1370 1561 1325 1442 1570 1529 1351 1106 1507
1079 1390 1651 1308 1123 1170 1311 1456 1072 1268 880 1030 1746 1701 1227 1313 1898 1828 1738 1586 1322 1159 1049 1002 1490 1857 1782 1870 1676 1534 1388 1224 1183 1064 768 714 1052 1372 1383 1216 986 831 711 404 394 487 342 294 382 597 682 741 927 1392 1541 1647 1656 1678 1473 1440 1102 1439
1626 1786 1674 1476 1490 1493 1515 1583 1904 1248 910 984 842 963 1148 1464 1711 1724 1897 1736 1462 1170 1009 840 1073 1194 1627 1753 1634 1461 1691 1344 1276 1316 1084 974 1338 1482 1530 1437 1208 925 568 416 447 432 348 313 281 459 531 595 682 878 1498 1543 1504 1369 1462 1552 1285 1300
1534 1650 1450 1359 1522 1461 1544 1642 1527 939 826 654 871 901 1144 1418 1475 1558 1795 1911 1883 1421 923 1056 1018 1249 1461 1600 1346 1724 1122 1357 1133 1123 1339 1394 1435 1631 1710 1553 1283 885 585 445 525 428 374 336 319 355 367 401 558 811 1197 1211 1199 1300 1341 1532 1605 1347
1568 1759 1651 1390 1274 1211 1246 1306 1484 997 963 813 911 1051 1238 1142 1349 1283 1444 1780 1624 1721 1498 1713 1631 1712 1827 1671 1044 968 934 973 968 1103 1029 1420 1642 1609 1601 1441 1363 1061 833 762 649 526 424 381 358 369 345 359 512 793 834 1265 1256 1468 1387 1660 1614 1783
1405 1706 1553 1432 1261 1198 1249 1368 1435 1728 1150 914 855 1101 1363 1510 949 1321 1468 1526 1188 1258 1407 1382 1534 1418 1448 1318 914 951 1191 1162 870 1141 1079 1936 1523 1586 1090 1392 1658 1173 849 1076 1118 692 428 478 471 415 451 449 507 446 460 610 1257 1580 1531 1571 1521 1583
1345 1488 1481 1224 1208 1194 1486 1803 1486 1386 1290 1085 1228 1433 1391 1392 1141 1007 1227 1211 1140 1179 977 1057 1069 1273 1305 754 1302 1013 927 830 1201 1731 1358 1279 1461 1325 828 870 1275 1399 719 959 1246 1059 882 779 689 641 595 521 641 823 654 640 1203 1519 1815 1357 1215 1321
1632 1686 1342 1408 1256 1812 1980 1775 1594 1634 1607 1743 1628 1616 1600 1426 993 1088 1004 936 908 997 750 661 869 776 1314 1438 1276 1444 1618 1492 824 1592 1076 835 1069 1168 1018 1358 1108 1204 1154 1012 1165 1026 1059 1141 926 865 1114 940 761 652 800 952 1255 1237 1354 1703 1752 1268
1756 1614 1550 1409 2021 2019 2000 2207 1920 1476 1696 1575 1185 1143 1209 1021 1218 1024 986 1030 1135 842 1193 1032 820 752 1026 1442 1319 1351 1446 1095 914 870 1036 2164 1850 1284 997 1580 1591 1496 1348 1142 1010 1043 1247 1364 1252 1181 1245 1294 1369 1130 1087 986 1166 1014 1031 1200 1140 1752
1858 1967 1796 1548 1766 2052 2357 2103 2147 1466 2033 1862 1410 1445 1298 1397 1160 1165 1253 995 959 1036 1237 1112 963 1125 1481 1576 1444 1349 1370 1404 1587 1548 1655 1907 1786 1682 1227 1467 1630 1545 1135 1514 1047 1454 1615 1710 1685 1742 1842 1815 1546 1350 1708 1659 1249 1518 1073 1237 1385 1020
2224 1954 1628 1522 1824 2117 2324 2240 2151 1769 1839 1614 1587 1392 1347 1393 1281 1443 1428 1538 1445 1421 1531 1457 1292 1323 1385 1533 1510 1447 1420 1500 1445 1467 1511 1485 1416 1485 1511 1149 1078 1510 1656 1000 1431 1576 1561 1743 1707 1702 1574 1664 1657 1678 1801 1822 1591 1055 1208 943 1051 1357
2069 1890 1796 1925 2025 2130 2156 1865 1885 1752 1748 1631 1562 1471 1456 1392 1253 1234 1310 1327 1478 1634 1569 1474 1349 1464 1509 1522 1491 1481 1526 1626 1447 1472 1570 840 841 905 1155 1119 1513 1219 1613 1897 1527 1486 1555 1810 1841 1722 1678 1946 1518 1466 1514 1552 1769 1613 1489 1307 1511 1254
2143 2021 2138 2168 2041 2053 2043 1967 1789 1842 1690 1631 1555 1378 1162 1024 1170 1213 1255 1293 1308 1713 1574 1596 1456 1454 1492 1643 1654 1559 1790 1733 1603 1498 1317 614 712 855 752 862 1182 1873 1732 1481 1814 2012 2008 1827 1777 1864 1781 1690 1428 1314 1484 1384 1489 1446 1455 1176 1359 1534
2492 2413 2362 2160 2070 2002 1935 1889 1717 1608 1348 1426 1154 1102 1041 997 943 1082 1210 1161 1518 1702 1715 1550 1556 1686 1838 1588 1717 1771 1733 1534 1464 1377 1382 900 741 919 966 1004 1760 1696 1637 1653 1709 1850 1753 1673 1687 1715 1604 1596 1302 1321 1326 1425 1274 1195 1180 1446 1233 1369
2616 2691 2507 2389 2218 2115 1927 1539 1470 1311 1124 952 964 957 1151 802 844 1229 1190 1224 1306 1503 1767 1577 1505 1607 1654 1747 1769 1685 1594 1476 1318 1239 1175 1274 1215 1234 1485 1630 1640 1576 1541 1558 1688 1602 1630 1744 1692 1567 1541 1466 1565 1365 1378 1280 1045 970 1037 1053 1213 1141
2630 2770 2750 2512 2348 2084 1787 1594 1618 1377 1173 990 1155 1143 1025 989 776 748 1236 1141 1183 1238 1111 1337 1621 1567 1641 1680 1719 1608 1479 1362 1319 1370 1492 1383 1341 1383 1493 1409 1560 1437 1397 1515 1466 1546 1592 1672 1334 1565 1667 1343 1238 1197 1239 1398 1135 1107 1181 1319 1059 1070
2979 2887 2825 2573 2313 1967 1729 1641 1842 1794 1538 911 958 1206 1191 1214 992 946 1035 1155 998 1076 1090 1018 932 929 1610 1844 1684 1575 1408 1457 1342 1462 1555 1503 1470 1348 1310 1376 1383 1358 1322 1305 1183 1211 1428 1680 1564 1483 1080 615 1171 1035 852 937 960 958 1094 1181 1221 1137
2782 2726 2655 2591 2288 1970 1816 1731 1602 2024 1675 1362 1070 792 588 521 561 342 320 675 817 1129 977 724 895 847 725 854 797 903 816 746 970 1174 1295 1484 1464 1418 1376 1316 1407 700 1041 792 806 1210 1284 1444 1574 1506 1422 563 621 711 764 606 952 691 994 881 982 998
2870 2603 2457 2525 2136 1810 1892 1746 1662 1184 947 931 788 665 434 331 384 397 88 109 258 581 644 879 613 623 520 487 692 654 639 344 538 699 808 1069 1100 1331 1470 1260 1337 992 722 809 740 672 1299 1114 1397 1478 1571 1764 1453 926 493 816 397 252 718 764 525 381
3074 2699 2577 2427 2193 2172 2146 1789 1484 1206 1068 956 835 734 506 495 354 130 78 102 126 664 488 571 641 471 386 251 524 611 622 470 488 724 790 775 822 878 1026 1244 1320 1342 1027 961 1131 1113 1370 1239 926 1142 1263 1340 1142 1041 1073 1102 433 282 431 372 455 459
3110 2840 2712 2530 2228 2251 2014 1788 1560 1167 985 837 826 772 736 637 377 139 64 93 178 323 390 391 463 443 492 308 464 516 508 613 430 317 406 430 711 700 771 815 1204 1436 1390 1457 1471 1200 1139 1243 1165 1164 854 1200 1304 855 1070 1180 633 197 304 382 127 8
2970 2930 2724 2491 2350 2188 1886 1769 1639 1403 1030 783 718 720 476 265 256 134 129 295 314 226 410 523 432 363 339 303 412 429 599 476 435 397 208 326 412 493 699 781 889 837 1748 1793 1668 1541 1319 1300 1298 1318 1107 1307 1160 832 1084 921 999 785 484 347 143 21
2477 2658 2751 2484 2222 2218 2022 1797 1596 1621 1439 976 748 552 342 296 245 204 208 238 176 236 194 198 319 412 353 305 385 406 411 393 473 254 219 353 413 462 514 568 638 708 1027 910 834 1293 1350 1312 1180 1264 1298 1316 931 860 887 849 902 661 495 394 278 17
2198 2353 2611 2357 2355 2267 2044 1792 1528 1769 1379 1176 917 625 390 246 104 78 37 130 147 112 133 110 211 421 510 369 430 353 283 236 257 235 142 179 233 226 242 360 586 827 830 810 1138 1066 980 1170 1032 918 1040 1019 512 659 850 523 622 513 531 539 264 75
1234 1876 2308 2463 2614 2346 1966 1855 1673 1681 1397 1206 1016 626 321 183 111 50 49 68 28 28 32 136 264 274 506 432 275 258 221 210 213 237 156 105 39 61 69 137 282 394 496 685 736 750 939 1022 1057 1011 996 895 747 735 758 836 513 570 619 528 362 123
586 850 1424 1561 2516 2269 2161 2023 1788 1738 1539 1276 910 463 214 147 113 42 6 0 2 2 12 127 266 221 461 335 63 114 145 101 84 24 2 0 22 86 70 97 159 197 290 255 345 628 978 1193 1239 1026 476 194 137 263 192 75 292 536 540 316 133 56
666 1006 786 1424 1957 2038 2162 1888 1787 1916 1566 1185 971 551 224 165 128 42 3 2 1 0 40 148 271 210 88 16 0 1 5 0 0 0 18 178 136 36 21 3 38 62 54 109 274 354 481 446 287 163 106 64 26 11 2 0 0 17 52 14 9 0
857 875 1048 1135 1527 1748 1924 1817 1623 1920 1454 1144 970 505 281 234 240 73 0 4 0 6 8 46 39 5 15 0 0 0 0 0 0 4 75 77 9 9 1 0 0 0 0 0 4 13 67 108 132 92 42 0 0 0 0 0 0 0 0 0 0 0
205 532 716 918 1218 1617 1720 1768 1771 1894 1412 1124 616 520 444 260 127 56 4 0 0 1 3 10 2 4 8 0 0 0 0 0 0 2 8 0 0 0 0 0 0 0 0 0 0 0 0 5 6 0 0 0 0 0 0 0 0 0 0 0 0 0
613 534 608 876 1167 1450 1693 1808 1836 1851 1419 1073 840 785 397 159 58 128 46 1 0 0 0 0 1 8 13 0 0 0 0 0 0 0 0 0 0 0 0 0 0 0 0 0 0 0 0 0 0 0 0 0 0 0 0 0 0 0 0 0 0 0

ECMWFFLT2_con_mucape_033.txt.gz
CAPE
1551 1748 716 768 792 774 722 504 454 1006 1048 1125 1586 1894 1911 1981 1990 1939 1984 2058 1932 1555 1553 1468 1687 1117 1740 1579 1759 1618 1499 1411 1294 1243 1074 830 804 877 928 944 723 777 846 954 821 836 986 963 763 679 1335 1236 1733 2001 1752 1519 803 606 471 562 782 666
1028 1240 1098 406 758 867 563 715 856 861 1081 1282 1306 1501 1612 1472 1501 1246 1400 1416 1102 1940 1394 1243 1319 1336 1423 1632 1548 1585 1518 1499 1316 1249 1116 1013 990 911 944 875 887 640 722 942 809 254 214 942 896 781 692 1499 1842 1594 1504 1310 1005 820 701 923 834 943
982 559 338 710 1216 804 550 706 692 960 1203 1122 980 1151 1394 1417 1149 927 962 891 1015 1106 1401 1047 1208 1038 674 1360 1461 1582 1549 1403 1428 1329 1227 1164 1122 1180 1145 1108 940 1013 792 674 591 358 190 171 420 961 979 1308 1481 1074 1307 1069 1055 807 628 802 561 1134
987 804 1205 930 1076 1617 1189 1086 628 869 1150 2021 1601 1362 1228 999 860 665 1004 948 872 883 842 891 841 737 787 1129 1549 1514 1552 1474 1372 1432 1258 1290 1318 1312 1168 1153 1199 926 796 345 424 684 255 340 338 482 846 1070 721 1523 1601 1130 696 1000 634 844 684 1127
570 894 1242 1026 632 953 881 879 827 1361 1286 1302 1094 1240 1322 1228 1194 1020 891 883 692 831 746 939 818 895 634 1119 1035 920 1267 1324 1381 1262 1438 1044 999 1111 1077 591 412 680 371 456 553 495 390 341 649 554 850 1116 1326 1380 1393 1040 1132 962 606 831 764 1196
1233 1187 1137 1224 1102 1135 1273 1079 1136 1384 1345 1613 1536 1441 1256 1220 1016 1009 1026 1173 941 846 799 913 803 859 949 938 1044 728 714 616 984 755 1047 946 732 860 930 626 364 244 619 552 449 332 326 361 353 708 1038 1327 1467 1469 1298 1052 1197 634 1088 950 934 1268
993 1363 1424 1686 1395 1226 1392 1425 1406 1487 1483 936 1281 1280 1258 1161 1210 1093 1065 1015 1053 926 1179 1216 1258 1160 765 604 545 990 1387 1522 629 949 700 909 797 796 912 1238 1124 811 690 612 278 267 252 224 583 351 893 1044 1456 1391 1385 1180 1234 1085 1387 935 1022 1356
1586 1508 1562 1989 1984 1629 1717 1447 1508 1588 1468 964 928 971 1039 1166 1074 1119 1095 896 1392 1937 1501 1379 1048 1245 894 963 678 546 946 932 798 1068 666 783 926 699 586 1239 828 785 651 464 450 254 209 236 276 454 739 1055 1346 1277 1223 1104 1020 1114 1160 986 718 1405
1698 1467 1286 1614 1616 1708 1547 1617 1524 1522 1619 1472 1625 1633 1374 1250 1306 1190 1001 1041 1361 1464 1617 1182 1155 1104 1104 1001 699 648 863 632 542 388 468 676 357 575 986 1260 928 872 627 446 394 392 299 277 152 660 499 377 924 1008 1133 953 1067 1272 1002 1199 889 1111
1365 1410 913 1306 921 1456 1239 1119 1758 1654 1552 1720 1563 1429 1518 1424 1368 1306 1147 953 1162 1377 1755 1238 1150 903 1251 1292 958 936 1202 1307 1426 1446 1020 1119 840 847 812 754 944 783 593 475 358 395 232 224 214 332 786 710 1058 873 831 1090 817 930 533 945 1011 894
1225 1422 966 1409 1833 1761 1760 1672 1664 1396 1460 1268 1251 1276 1364 1310 1053 1455 1055 957 1384 1543 1974 1760 1417 902 1066 1058 1087 901 1291 1340 1471 1289 1470 1459 1306 739 1019 631 826 1034 300 514 454 250 304 194 226 238 538 533 666 798 915 767 997 685 706 872 1116 886
1238 1492 1589 1604 1487 1685 1458 1032 1358 1574 1544 1457 1677 1503 1352 1385 1617 1492 1395 1484 1792 1437 1481 1573 1341 1375 1180 1222 1005 1418 1244 1182 1178 1398 1294 1365 1249 858 652 899 993 766 1150 511 425 347 320 198 191 173 154 350 420 649 970 574 642 1006 1116 1482 940 783
1528 1518 1349 1368 1301 1399 1183 1293 1212 1505 1561 1688 1391 1240 1266 1501 1410 1344 1488 1323 1415 1340 962 1134 1552 1125 832 729 755 707 1159 994 1310 1440 1063 1100 912 759 804 835 804 809 861 852 268 322 119 354 338 225 188 274 296 363 310 760 819 1113 897 1411 1132 1240
1523 1438 1575 1313 1365 1093 913 838 1242 1687 1721 1600 1479 1558 1649 1562 1450 1200 1315 1390 1376 1410 1307 1324 1023 1030 834 1362 1308 1556 1384 1547 1748 1550 1368 1215 1038 1339 1010 972 612 792 707 1318 1101 422 524 431 501 291 392 218 157 289 257 270 360 547 826 950 1263 1484
1480 1336 1284 1362 1370 1338 1518 1582 1410 1469 1467 1821 1765 1679 1643 1612 1543 1319 1365 1444 1730 1501 1351 1507 1482 1468 1196 857 1160 1101 1071 1600 1676 1425 1085 1299 1036 1146 1140 889 975 828 590 703 462 422 244 568 487 224 454 509 368 374 349 335 271 1108 875 1143 1306 1202
1507 1420 1544 1508 1906 1344 1626 1424 1485 1504 1966 1992 1776 1596 1630 1504 1443 1452 1444 1502 1705 1557 1468 1576 1432 1136 1349 1210 899 944 1110 1356 1254 1851 1386 1299 1190 1087 1301 921 779 808 691 1377 482 485 1029 516 889 825 634 725 1020 658 214 559 262 518 846 1106 845 878
1588 1545 1795 1797 2065 1927 1992 1941 1907 1774 1865 1986 1576 1484 1411 1386 1314 1381 1341 1358 1696 1617 1396 1482 1486 1445 868 1180 642 774 916 1016 1225 1354 1172 1077 845 1055 904 1062 1196 847 1313 750 897 857 811 635 966 1119 1028 1377 1232 528 879 1704 876 778 1530 1201 1087 1144
1319 1736 1683 1624 1957 2388 2514 2084 1895 1790 1758 1742 1568 1250 1140 1204 1250 1223 1291 1446 1645 1647 1571 1209 1091 1342 1173 1125 719 490 898 824 683 925 843 931 972 906 1110 1387 1232 1423 1309 1095 1258 1049 878 1150 1136 1204 1420 1444 1116 918 1232 1172 1211 1088 935 949 1216 900
1817 1423 1860 2076 2427 2844 2567 2190 1871 1813 1876 1647 1413 1202 952 811 873 982 1062 2006 1755 1821 1575 1546 1440 1464 1406 992 916 716 680 685 930 1524 1365 810 1120 1222 1272 1390 1450 1416 1247 1471 1220 1116 718 1175 773 850 917 1610 1563 1614 1432 1376 1294 1363 1523 1131 798 681
1840 1623 1822 2204 2583 2585 2126 1869 1668 1523 1437 1185 1070 1059 939 884 762 724 905 1065 1195 1657 1698 1771 1565 1483 1499 1490 1278 939 1195 786 1093 1458 1516 804 848 1489 1362 1438 1383 1043 1204 928 1105 483 963 1128 870 952 1412 1383 1275 1344 1464 1376 1437 1152 968 994 1338 931
1379 1404 1390 1650 2134 1534 1628 1369 1232 1264 1141 1043 694 934 888 828 747 813 853 843 1204 1369 1396 1626 1479 1521 1302 1247 1084 1406 802 845 1156 1188 1554 1562 1579 1622 1771 1790 1356 870 1001 789 976 684 909 778 984 1002 733 1281 1277 1071 1104 1102 1446 1334 1278 1251 1184 903
1411 1273 1579 2402 1879 1707 1253 1148 1313 991 806 840 561 638 475 713 1004 1146 1145 1072 1093 1614 1407 1415 1342 1533 1663 1378 1321 1263 1253 1382 1304 1119 1580 1635 1599 1305 1278 1103 893 644 485 485 535 763 944 692 776 987 1055 800 762 802 896 915 688 834 1221 1143 1046 1396
1922 2174 1913 1819 1416 1350 1123 1003 1014 766 902 786 816 911 702 398 374 846 1229 1083 1125 1144 1129 1313 1291 1609 1753 1634 1540 1386 1146 1152 1420 983 1331 1625 1470 1719 1319 1104 691 530 629 503 479 739 969 1218 1134 826 515 586 866 412 636 883 728 1130 754 837 1198 989
2502 2279 1630 1502 1477 1638 1471 1468 1218 1081 842 900 1112 821 702 804 519 429 844 884 921 990 877 705 804 849 1444 1558 1788 1539 1360 1510 1564 1631 1052 1216 1139 1248 1100 903 666 580 669 456 466 731 1298 1870 1013 1239 678 357 405 1062 852 692 948 690 846 810 1002 1066
2047 1540 1525 1420 1819 1639 1658 1673 1292 1216 982 640 322 344 605 614 630 352 197 682 857 947 749 654 645 655 609 800 666 686 934 1221 1530 1606 1253 787 906 802 581 796 745 840 724 463 668 1281 1262 1196 1050 1257 1011 362 430 293 373 808 726 618 933 1035 648 679
1534 1201 1003 1515 1632 1490 1588 1602 1440 1101 465 294 450 542 570 333 49 330 297 89 106 406 573 646 536 533 544 527 368 154 47 197 458 935 1078 1469 1203 975 876 817 1145 1155 680 760 1290 992 1057 1239 1264 1365 1034 865 1008 486 464 798 562 547 588 931 678 713
1452 1363 1143 1072 1315 1728 1428 1413 1193 716 528 555 491 396 287 472 449 74 3 286 206 448 397 550 464 398 141 78 198 401 557 317 174 230 541 672 967 1341 901 948 1233 1003 975 1237 1317 1101 1182 1136 1216 1184 1094 1160 904 831 874 595 568 442 491 542 608 316
1374 964 776 896 1013 1887 1589 1317 1136 815 789 671 647 469 520 378 142 50 132 87 262 408 209 194 259 184 254 196 412 464 450 406 253 112 81 113 344 585 879 1238 1071 1112 1176 846 1166 694 468 900 1048 888 1052 862 728 936 956 1225 717 656 332 393 210 76
1048 692 869 868 1158 1751 1300 1320 1206 923 902 785 465 414 257 71 82 167 253 259 370 350 477 457 369 115 256 116 270 438 409 311 228 161 82 170 277 416 689 1114 890 1030 938 1188 1232 915 927 1218 996 876 844 1081 750 655 849 847 960 386 435 256 60 55
569 855 986 1058 1440 1576 1421 1471 1109 975 792 369 264 180 81 99 114 257 483 603 445 359 254 381 360 322 240 154 193 309 307 296 252 160 181 243 263 352 476 646 798 900 1213 1136 1117 1301 1222 1082 627 783 751 995 938 686 789 524 697 572 760 587 123 18
796 890 1236 1011 1125 1109 1772 1316 1108 1001 636 521 451 328 228 232 63 67 128 160 366 354 253 320 317 383 432 313 275 200 259 245 316 288 174 122 156 121 358 465 506 660 866 1145 1231 1410 1246 1226 1043 971 880 524 788 518 830 243 577 402 396 467 283 83
731 692 1238 1172 1248 1180 1722 1491 1154 1073 818 776 609 354 205 203 195 104 180 223 174 176 285 232 366 407 395 328 238 169 176 250 198 228 102 87 93 110 120 195 294 340 648 830 811 1029 1245 1175 1032 996 1004 812 644 673 693 502 340 428 329 491 210 80
1184 1443 1016 1235 954 1218 1526 1573 1218 975 980 819 480 181 168 102 101 104 162 141 36 70 79 234 301 320 220 94 69 99 191 190 68 9 11 0 7 43 107 145 232 299 314 329 465 797 1386 1442 1184 921 278 192 235 342 245 586 822 660 462 708 304 48
1301 1186 1371 1166 953 1338 1774 1671 1290 1068 995 672 358 165 88 109 76 38 36 35 94 51 127 366 276 228 58 43 130 180 113 4 0 12 51 108 43 3 0 24 81 82 131 200 323 406 441 326 203 103 58 12 4 1 0 1 13 23 30 24 6 0
1915 1807 1575 1517 1781 1927 1502 1299 1325 1238 940 846 400 135 76 138 159 55 7 26 19 60 285 216 159 54 0 0 0 0 0 0 36 37 12 0 0 0 0 0 0 1 7 39 94 208 268 252 132 0 0 0 0 0 0 0 0 0 0 0 0 0
1516 1855 2128 2091 2147 2022 1735 1365 1451 1420 1031 1026 445 205 148 176 223 111 52 84 72 98 166 165 52 0 0 0 0 0 0 0 0 2 0 0 0 0 0 0 0 0 0 0 0 0 2 0 0 0 0 0 0 0 0 0 0 0 0 0 0 0
1305 1886 2189 2239 2165 1433 1660 1563 1386 1366 1184 1042 648 382 361 404 239 161 104 73 45 65 166 52 0 0 0 0 0 0 0 0 0 0 0 0 0 0 0 0 0 0 0 0 0 0 0 0 0 0 0 0 0 0 0 0 0 0 0 0 0 0

ECMWFFLT2_con_mucape_036.txt.gz
CAPE
757 801 705 975 645 574 667 867 716 749 718 634 716 906 1001 1207 1652 1684 1737 1650 1155 798 626 772 374 734 1180 1482 1624 1403 1296 1207 1125 948 751 750 732 769 847 816 879 935 1093 1106 1197 1201 1170 1142 875 1146 948 1226 1533 1714 1879 2168 976 979 829 758 822 803
849 770 863 786 662 563 762 661 626 651 787 793 935 1516 1686 1472 1303 1513 1445 1020 733 614 571 474 485 998 721 1302 1576 1472 1324 1211 1129 941 696 755 748 744 819 708 759 796 971 990 1122 1072 794 1163 1053 696 1240 1416 1393 1751 1973 1733 778 794 872 770 954 1308
769 964 799 660 562 588 788 594 628 912 1076 1028 1228 1236 1198 1352 1363 1339 1194 992 818 698 614 777 899 621 472 1160 1563 1492 1377 1253 1216 1075 952 812 870 796 702 837 678 758 702 816 930 701 350 361 780 1179 1137 1091 1300 1637 1630 1671 1093 962 755 824 871 1492
668 727 723 587 618 675 786 833 949 1092 1049 804 1117 1375 1293 1322 1141 1230 1277 992 811 711 761 1021 982 1002 933 1272 1557 1521 1479 1364 1357 1316 1037 1027 1033 1130 894 908 966 752 787 476 160 162 176 366 455 671 634 1084 1177 1548 1720 1315 708 880 819 880 988 1546
862 996 924 836 797 930 1044 1033 1069 1174 1070 1170 1446 1507 1443 1360 1238 1232 910 1114 1030 872 753 842 998 1035 1106 1345 1307 1484 1486 1390 1303 1195 1236 1015 1028 649 1055 765 374 637 452 286 342 472 384 458 604 679 716 1030 1268 1469 1659 1423 1055 1361 768 944 1315 1494
989 1324 1245 1150 1097 1194 1165 1002 1088 1539 1419 1556 1402 1514 1536 1433 1343 1191 1153 1022 1028 678 884 921 858 832 1011 1268 1446 1634 1402 1360 1288 1201 1299 1323 1090 795 678 621 329 209 156 359 360 515 566 630 706 800 872 1038 1412 1650 1572 858 1004 859 841 1218 1431 1515
1291 1183 1422 1244 1196 1167 1145 1211 1346 1472 1505 1538 1585 1438 1448 1361 1450 1418 1324 1242 912 715 866 1024 881 814 935 1079 1253 1454 1440 1435 1043 872 489 966 684 670 374 696 486 318 465 666 721 316 293 342 570 608 859 976 1187 1316 1508 859 1110 1000 654 1209 1573 1440
1256 1350 1399 1478 1248 1153 1220 1273 1289 1507 1597 1807 1714 1767 1743 1729 1550 1506 1258 1081 890 774 848 986 1079 971 907 988 1135 1141 1004 991 1013 912 658 622 593 612 546 823 796 406 341 428 344 177 210 106 292 674 672 817 1234 1078 839 1031 1562 966 630 1036 1443 1511
1321 1422 1556 1423 1391 1322 1330 1383 1354 1440 1524 1517 1438 1486 1359 1544 1528 1437 1325 988 812 813 809 728 834 1024 995 1079 998 892 1102 1062 1096 1055 882 765 684 617 736 721 583 849 754 355 181 156 143 135 331 512 690 756 1121 1253 802 1042 1476 940 637 816 1106 1494
1358 1476 1507 1444 1400 1394 1360 1446 1484 1539 1673 1746 1562 1499 1500 1529 1582 1446 1401 1036 872 722 759 615 508 837 1071 1136 978 1047 989 1051 1203 1449 1175 885 781 762 631 874 854 1115 998 857 369 117 188 236 19 288 336 402 711 740 702 824 862 997 803 872 1214 1530
1225 1422 1408 1430 1509 1698 1605 1492 1412 1591 1517 1523 1537 1472 1418 1476 1491 1441 1594 1033 752 693 666 700 660 1018 1110 1180 1247 943 974 907 1100 871 1036 1144 1383 1441 1089 1141 860 754 922 682 649 248 154 106 70 250 355 324 507 876 226 288 1065 1278 1041 910 1086 1216
1300 1352 1348 1350 1541 1580 1512 1294 1371 1202 1265 1317 1573 1388 1386 1410 1481 1382 1097 1273 822 690 647 813 1211 1200 1276 1304 1054 1057 1435 1316 1375 1076 1096 1534 1527 1067 1253 1142 1140 1006 639 886 760 393 367 258 181 125 239 354 570 751 187 364 794 1214 832 914 766 916
1060 1621 1478 1492 1394 1367 1613 1263 1319 1302 1377 1525 1572 1456 1486 1423 1722 1401 1426 1183 1042 982 1186 1284 1364 1320 1282 1286 1336 1190 1292 1402 1338 1429 1404 1430 1388 1294 1351 1474 1108 1067 1331 994 450 355 375 225 317 224 84 258 304 220 333 560 766 1083 720 1075 1368 691
1514 1523 1662 1501 1718 1434 1470 1245 1398 1423 1517 1646 1473 1511 1545 1721 1802 1620 1374 1578 1188 929 1203 1342 1385 1168 1274 1205 1275 1214 1203 1286 1478 1438 1559 1639 1594 1602 1470 1339 967 795 941 962 932 616 605 596 556 127 324 526 341 366 419 636 926 1085 1140 879 1586 1172
1525 1397 1423 1484 1432 1453 1517 1263 1098 1214 1566 1665 1630 1668 1832 1909 1662 1571 1474 1307 1508 1442 1262 1429 1222 1434 1111 1209 1217 1158 1270 1388 1196 1404 1418 1510 1645 1576 1439 1268 1145 1408 936 1087 948 700 928 720 1015 319 488 208 149 536 385 500 885 1243 1370 1393 1596 1212
1821 1669 1666 1581 1666 1684 1650 1626 1464 1476 1857 1933 1735 1853 1886 1736 1548 1545 1478 1548 1536 1403 1275 1387 1097 1263 1084 1072 1250 1248 1383 1102 1040 1383 1090 1508 1537 1334 1431 1313 1184 1117 1201 1258 1033 1088 1287 533 976 727 405 221 468 674 616 693 871 855 863 1252 1340 1318
1716 936 1871 1814 1760 2158 2043 1652 1674 1664 1894 2110 1870 1698 1752 1764 1617 1611 1484 1187 1272 1648 1473 1337 1221 1292 1283 1076 941 1104 1071 1091 1039 1294 1201 1306 1170 1463 1460 1171 1299 1195 1387 1386 1113 1120 1674 1184 939 741 620 453 776 494 1031 847 884 966 1373 1089 1026 929
1667 1638 2034 2070 2186 2394 2042 1932 1828 1862 1907 1731 1664 1548 1374 1178 1494 1433 1454 1498 1396 1839 1570 1123 1236 1373 1085 1071 1035 835 908 1057 1237 1256 1152 1261 1299 1398 1540 1730 1695 1438 1323 1574 1488 1194 1096 1183 761 1053 560 700 634 692 968 770 1050 1358 998 1112 1144 1084
1710 2156 2089 2181 2393 2328 2437 2215 2161 2101 2104 1956 1700 1552 1485 1275 1297 1417 1402 1649 1728 1576 1718 1412 1294 1029 780 753 680 778 876 906 848 1166 1344 1169 1098 1255 1531 1672 1613 1572 1397 1367 1335 1370 859 667 924 709 605 609 841 675 866 974 712 817 986 925 982 1037
2037 2245 1971 2426 2270 2352 2191 2042 1952 1941 1824 1666 1256 1117 1198 1146 1109 1174 1222 1467 1675 2055 1569 1691 1324 899 827 512 717 567 818 844 998 1343 1218 1014 1233 1216 1424 1519 1593 1391 1514 1172 1359 1006 762 572 611 426 720 756 574 760 818 1271 857 634 898 937 778 636
1900 1704 1735 1916 2058 1788 1836 1766 1905 1759 1676 1482 1090 1070 1249 973 1000 1146 1036 1065 1424 1477 1680 1468 1254 1041 903 862 602 496 635 1084 1109 975 766 912 1042 1278 1249 1592 1514 1149 1334 1485 1345 1189 825 650 496 555 512 674 689 825 1159 1030 956 1238 696 702 459 483
2152 2165 2233 2265 2240 2316 1766 1716 1854 1392 1077 926 789 841 963 1335 1306 1259 1440 1444 1621 1368 1500 1624 1241 1076 832 710 724 822 1072 1321 1296 1133 836 1147 1323 1414 1297 1570 1289 979 970 1144 1088 1001 685 525 274 434 582 676 774 1168 1217 878 1027 1055 805 827 434 408
1980 2004 2000 2398 2331 2318 2289 1705 1812 1247 1198 621 473 984 570 800 1165 1111 1612 1382 1514 1456 1429 1259 1463 974 732 965 1018 1078 1303 1390 1264 1298 1207 1138 1408 1344 1436 1239 1092 1135 891 899 712 796 685 560 479 631 611 617 601 638 644 823 965 975 1088 1072 905 321
2084 2128 2188 1619 1210 2008 2479 2202 2090 2253 1887 1648 1032 738 539 564 1078 911 1157 1261 1308 1506 1278 1184 1200 1073 1507 1166 1353 1211 1428 1255 1485 1340 1404 1336 1236 1486 1354 1259 1135 1028 1067 858 905 988 876 664 527 406 316 405 487 396 279 636 811 741 940 888 567 677
2189 1908 1460 1177 1324 1290 2303 2062 1886 1177 969 925 820 838 745 328 533 798 1110 1278 1228 1288 1060 921 1148 1067 1014 1100 1084 1025 831 1112 1293 1345 1140 1269 1388 1416 1525 1392 1107 1022 961 1071 815 772 961 705 577 602 972 558 306 324 452 534 577 740 1053 1086 641 440
1752 1679 1282 1019 1144 1288 1317 2356 1697 1216 761 734 786 854 1041 1076 497 379 528 813 827 915 785 792 823 694 727 716 832 939 829 1135 1442 1020 1199 1436 1131 1461 1428 1283 1136 1230 1094 796 1036 972 1196 727 819 742 609 1123 673 578 567 663 470 327 712 1240 814 440
1709 1433 1102 891 788 1213 1152 1787 1644 1098 684 835 810 1216 892 736 931 412 480 898 832 935 680 944 717 447 362 489 878 768 555 985 920 1316 1310 1291 1460 1345 1095 963 1284 1351 1220 977 815 725 820 678 502 516 620 1024 1114 1143 865 468 411 296 274 453 474 527
1548 1231 1277 920 672 854 1255 1791 1547 1002 786 1143 1306 886 1087 1078 655 552 801 597 774 696 742 614 643 140 240 761 792 746 695 654 445 508 541 838 1470 1211 1399 1149 1374 1380 1322 1190 1246 906 565 599 497 378 577 602 768 1155 1243 1176 416 364 202 144 127 206
1170 1051 1036 1001 1066 1058 1130 1541 1862 1528 1208 1336 772 995 510 307 553 629 606 615 716 398 775 804 602 614 569 322 782 907 734 567 1099 331 275 482 736 826 1163 1192 1479 1478 1220 1254 1134 914 632 332 334 254 417 594 849 1027 1193 1119 618 305 344 160 94 81
1100 960 764 700 995 1197 1052 913 1435 1398 1519 668 731 610 329 487 632 694 902 1087 1104 1051 874 683 869 462 444 496 527 589 538 537 633 505 447 519 731 868 1060 1107 1368 1380 1291 974 1347 1235 1219 1206 873 756 573 778 683 601 720 918 790 707 697 396 122 13
788 783 664 582 886 1116 795 959 1372 1619 670 603 643 656 547 420 528 782 1000 856 901 1001 688 992 781 703 863 627 726 614 456 379 406 771 385 359 664 544 918 1051 1096 1104 983 1166 978 763 1288 1117 950 836 512 473 608 559 443 404 535 639 538 696 223 18
706 709 587 605 719 748 796 1020 1526 1306 680 787 811 756 532 466 382 441 573 700 1079 930 1015 726 958 816 850 623 698 736 546 662 623 663 668 643 333 553 769 728 923 1044 1060 1149 1250 1363 1319 1087 1058 918 898 324 376 578 750 389 484 805 668 469 222 8
872 771 635 619 697 888 970 1298 1980 1279 1297 1271 902 645 589 689 576 645 620 803 539 834 726 817 752 741 416 407 354 462 762 499 135 247 154 63 226 472 622 606 721 690 763 859 972 1108 955 1050 1072 705 563 799 479 576 588 527 440 641 1154 663 326 5
754 757 686 795 833 1013 1192 1536 1867 1610 1366 1029 1103 720 644 533 656 694 830 619 495 747 759 793 709 626 314 314 519 82 42 40 104 162 295 348 278 294 475 209 398 522 573 727 854 731 548 630 646 581 686 408 178 252 615 702 692 635 351 673 160 172
804 869 928 897 991 1184 1312 1926 1811 1571 1222 1001 919 662 696 798 664 558 561 342 926 746 929 648 430 130 73 54 85 75 120 302 165 52 78 102 22 13 108 43 163 479 532 580 624 509 371 92 2 0 0 0 0 0 277 453 414 528 306 288 317 22
890 1061 1081 1058 1210 1353 1919 1726 1877 1472 1299 1232 577 664 798 629 748 904 452 676 804 1004 727 504 96 26 34 50 4 5 67 108 103 116 76 22 0 0 8 13 0 23 0 69 164 9 1 10 11 5 2 2 0 0 0 0 0 0 24 91 0 46
959 1111 1218 1179 1341 1850 1588 1515 1732 1600 1444 1325 708 885 863 908 739 643 668 774 464 841 572 187 36 4 0 5 20 14 28 74 124 34 0 0 0 0 0 0 10 0 0 0 0 0 1 0 0 0 4 3 2 6 5 7 2 0 0 21 27 8

ECMWFFLT2_con_mucape_042.txt.gz
CAPE
1539 1540 1486 1454 1519 1547 1694 1702 1492 1426 1538 1697 1704 1766 1863 1987 1950 1878 1600 1504 1227 1165 1289 1336 1424 1437 1614 1513 1492 1260 1218 1259 1131 1074 1065 1030 1034 1008 909 944 883 870 979 1060 1067 1185 1232 1179 1158 1247 1389 1364 1061 995 966 1014 666 598 629 570 494 598
1438 1470 1394 1416 1464 1491 1500 1254 1115 1186 1245 1424 1531 1678 1608 1786 1803 1520 1308 1230 1014 922 1028 1196 1398 1703 1453 1659 1380 1278 1207 1132 1099 1038 931 920 869 872 863 929 808 757 836 733 817 549 439 540 703 811 1315 1106 890 854 896 857 648 578 521 483 614 949
1356 1336 1320 1314 1334 1338 1272 1204 1212 1192 1145 1291 1589 1483 1565 1558 1401 1269 1041 989 856 788 890 1134 1262 1451 1519 1382 1411 1343 1203 1019 924 982 976 923 862 813 774 746 768 778 662 696 396 228 230 92 607 755 800 871 954 927 676 609 545 439 456 539 682 1068
1209 1205 1155 1103 1104 1155 1284 1351 1240 1109 1082 1212 1336 1444 1401 1282 1214 1088 934 824 712 723 872 1036 1368 1435 1707 1433 1311 1403 1298 1056 953 870 915 974 921 847 927 973 746 683 470 330 28 10 10 167 592 701 655 782 900 965 729 575 531 562 609 873 841 1228
1136 1125 1033 960 985 1148 1235 1156 996 958 1044 1173 1327 1364 1272 1058 900 826 680 556 628 634 822 1075 1282 1327 1386 1311 1268 1178 1137 1073 895 973 817 724 751 692 786 515 335 206 82 215 255 290 308 312 296 565 536 583 788 944 874 656 609 624 754 790 1024 1129
1042 986 916 927 1011 1033 986 799 840 999 1146 1179 1214 1241 1155 903 700 602 548 504 633 796 943 972 1077 1277 1242 1259 1207 1152 1126 1079 995 960 878 800 730 583 532 429 343 271 233 218 236 241 265 223 21 39 497 490 603 819 834 677 681 775 789 826 1116 1133
744 813 779 887 883 766 692 740 930 1109 1131 1082 1089 1113 1092 906 642 543 511 460 548 707 825 873 1053 1120 1145 1184 1173 1110 1122 1031 1006 937 771 730 671 564 476 345 281 304 282 190 215 215 118 64 0 42 202 456 667 720 799 679 698 826 839 925 1388 1438
563 574 627 618 628 696 791 893 974 1184 1065 1170 1055 1033 1011 854 628 606 644 576 556 597 538 693 918 1003 1052 1106 1053 976 952 811 791 769 532 566 555 380 212 328 272 256 299 265 184 125 117 206 233 282 333 492 658 699 665 584 778 915 1001 1062 1269 1492
589 524 590 619 588 716 860 862 949 1103 1205 1424 1021 952 878 751 678 716 737 674 598 626 559 569 688 848 907 997 996 932 821 703 646 573 477 432 360 247 227 266 254 445 296 271 138 116 26 22 233 331 403 564 721 764 753 704 874 963 879 907 973 1299
675 584 666 669 628 758 907 945 968 1205 1230 1241 1032 967 873 758 714 818 846 748 685 670 706 604 659 660 706 655 775 752 720 656 531 497 389 258 309 244 214 314 217 212 149 158 77 88 3 17 221 303 419 527 633 732 769 763 873 824 840 914 1053 1274
753 700 755 718 720 838 1003 1006 1003 1198 1205 1160 1055 918 866 870 805 729 782 778 698 732 742 739 731 608 620 590 570 527 541 688 510 564 491 290 461 452 439 401 304 93 130 133 79 21 2 21 140 192 220 295 406 464 560 708 830 815 867 893 892 1049
858 801 822 784 827 928 1044 1042 1137 1136 1188 1186 1027 902 941 1012 963 922 862 872 783 731 775 820 847 881 842 677 768 704 674 746 718 633 704 773 791 685 571 471 572 434 432 142 81 20 11 16 137 166 278 302 349 407 644 734 817 849 846 781 748 776
944 931 906 887 926 975 1044 1106 1179 1205 1212 1185 964 985 1140 1198 1148 1053 918 772 744 805 774 842 806 897 936 870 822 651 876 774 756 846 958 1082 1035 810 715 746 676 529 161 116 70 56 59 2 34 228 286 329 394 544 682 731 841 860 762 690 620 684
1089 1027 1030 1025 1031 1066 1125 1156 1180 1247 1161 1079 973 1106 1272 1294 1196 1097 868 690 741 808 698 780 892 953 962 921 908 937 910 836 932 972 1171 1177 959 810 646 426 636 495 470 106 92 90 81 105 104 173 303 377 579 675 660 747 761 736 696 643 528 492
1201 1145 1181 1170 1154 1164 1197 1230 1262 1210 1114 1049 1005 1197 1284 1233 1202 1174 938 766 734 666 611 824 1047 1024 980 967 992 1056 1004 993 1010 1048 1203 1211 1221 1055 742 635 472 249 123 137 149 247 43 152 154 186 241 250 554 761 811 815 690 732 713 636 492 463
1310 1317 1321 1313 1278 1246 1260 1286 1296 1321 1135 1054 1076 1233 1206 1140 1170 1203 1014 881 734 628 679 914 1094 1076 1060 1023 1015 933 1008 1000 1181 1187 1192 1259 1204 1115 764 734 654 301 250 144 182 155 116 105 122 142 162 289 380 477 522 597 625 675 729 688 624 466
1443 1437 1457 1417 1345 1370 1364 1345 1302 1249 1126 1093 1121 1125 1162 1237 1189 1075 1001 908 883 784 845 956 1108 1081 1040 835 840 867 1008 953 1130 1106 1166 1211 1152 1040 643 478 786 498 242 156 134 135 120 139 184 198 274 321 405 492 532 583 686 675 731 836 741 680
1491 1488 1426 1224 1365 1499 1429 1422 1297 1220 1141 1100 1112 1172 1145 1199 1205 1096 978 990 926 783 1004 1035 1101 1125 955 851 938 1034 1095 1034 964 1041 956 1078 1114 1060 695 803 861 704 438 177 91 223 239 305 315 316 341 344 321 401 497 625 804 769 809 915 904 926
1493 1353 1376 1147 1094 1371 1400 1360 1234 1221 1147 1156 1217 1310 1273 1235 1146 1015 1062 1016 948 862 1075 1076 1011 1030 966 918 944 1017 931 877 909 874 809 805 954 1104 1075 931 1086 990 659 286 282 304 326 364 346 351 362 375 356 345 531 667 749 832 842 906 1045 1163
1466 1475 1127 1126 1134 983 1351 1387 1297 1270 1242 1281 1406 1337 1258 1190 1020 886 954 856 952 865 906 953 885 895 941 894 801 745 710 913 924 808 803 771 815 1018 1074 1076 1159 896 567 442 358 390 373 368 397 386 383 398 381 389 489 698 799 850 869 900 988 1056
1418 1348 1216 1084 966 766 1300 1417 1380 1444 1391 1365 1440 1340 1286 1123 971 993 906 845 862 964 886 903 965 984 957 898 837 720 706 823 911 880 850 782 830 1049 1124 1111 1176 982 621 449 485 524 496 444 460 494 491 468 452 448 502 644 743 772 824 905 882 895
1477 1446 1096 993 927 954 1029 1407 1441 1458 1351 1326 1324 1183 1170 1049 991 954 912 949 955 1043 966 1041 1032 941 862 830 779 689 616 644 841 1023 953 943 1014 1151 1121 1082 1103 1041 749 534 497 601 501 478 416 451 471 447 463 485 521 514 534 670 816 798 795 793
1388 1318 1161 980 1126 971 1296 1405 1347 1370 1308 1302 1227 1159 1134 1013 999 941 911 1002 1034 1031 1066 1076 1025 977 865 607 538 452 574 719 808 954 814 854 931 946 1116 1048 1085 901 758 595 412 386 466 452 457 511 482 442 365 404 474 518 444 516 482 581 557 631
1195 1113 1045 1108 1144 1263 1474 1472 1413 1349 1259 1201 1114 1026 882 898 939 916 996 1052 1121 1126 1069 1027 987 872 716 465 266 400 631 857 787 821 677 744 960 948 1133 946 956 1019 762 518 426 407 399 405 524 459 270 253 0 0 303 460 404 388 373 443 492 456
1102 1223 1106 1068 1200 1398 1499 1454 1335 1139 886 795 866 848 862 872 944 1032 1068 1091 1106 974 882 802 839 724 653 485 372 462 698 832 926 880 811 897 1023 1002 1113 1011 911 810 802 511 398 424 451 397 465 528 332 10 1 0 0 0 325 326 362 316 271 309
1214 1216 972 1079 1178 1462 1460 1440 1299 1032 566 624 723 799 853 864 838 875 978 1004 1015 916 816 791 756 601 645 572 471 628 863 852 967 931 901 881 1057 1028 833 980 893 684 565 462 425 383 434 386 448 373 299 30 0 37 0 71 0 12 232 132 224 326
1282 1182 1113 1316 1528 1482 1461 1477 1300 963 535 510 496 581 665 678 674 650 744 894 933 894 777 714 607 593 615 720 702 712 889 892 878 887 876 827 976 1026 1010 990 851 768 742 630 545 480 447 368 369 384 514 538 548 200 0 0 0 0 63 104 226 80
1301 1319 1419 1552 1600 1516 1504 1354 875 718 513 446 439 453 591 638 577 527 579 694 835 865 746 590 498 561 594 647 704 729 817 758 779 791 769 790 878 875 1094 1059 884 739 725 560 605 516 470 423 354 356 466 528 615 23 8 0 0 0 0 3 131 166
1374 1366 1300 1304 1414 1353 1245 1079 660 477 447 494 513 577 685 667 566 479 442 488 677 742 678 536 485 532 526 492 527 542 482 528 655 748 650 632 780 798 1034 1067 949 913 888 465 581 586 630 539 415 415 555 691 545 10 0 0 0 0 0 0 89 18
1458 1074 948 1080 1198 1001 712 590 459 344 378 345 219 470 706 664 484 402 385 338 308 421 382 241 232 267 256 0 0 0 0 2 448 667 610 568 654 889 1022 881 922 978 1030 838 585 584 538 524 554 488 586 576 424 0 0 0 0 0 0 0 115 1
1434 1048 961 894 802 684 587 575 540 520 494 74 0 0 398 457 308 301 293 281 267 192 27 1 0 0 0 0 0 0 0 0 356 491 483 537 632 742 840 792 955 948 960 782 685 638 298 311 430 547 641 546 389 1 0 18 0 0 0 0 0 0
1378 1091 966 815 723 686 614 590 584 472 266 125 0 58 173 105 82 14 213 233 121 56 154 42 0 0 0 0 0 0 0 191 344 391 433 423 449 616 793 831 781 665 637 664 626 427 305 290 361 493 646 674 243 0 0 0 0 0 0 0 0 0
1330 1059 925 880 797 705 628 480 342 304 242 48 0 0 166 143 4 9 213 0 0 168 174 43 151 0 0 0 0 0 0 0 0 182 380 422 425 439 434 516 469 502 504 598 669 580 400 338 291 418 512 720 476 330 0 0 0 0 0 0 0 0
1423 1160 1090 987 881 756 574 325 317 307 273 235 189 1 207 79 164 242 275 228 175 59 2 0 165 190 81 0 0 0 0 0 0 144 312 365 415 467 475 526 541 500 473 623 690 633 457 332 387 455 476 513 278 433 323 191 0 14 18 0 0 0
1444 1176 1151 1078 940 624 665 588 424 394 354 326 297 0 0 212 293 329 303 0 0 10 0 0 0 0 0 0 0 0 0 0 0 114 277 258 307 341 449 560 591 492 460 499 555 463 341 344 274 300 427 453 478 302 235 17 0 81 33 0 0 0
1426 987 887 916 670 585 709 812 558 506 446 422 99 0 75 342 342 300 272 268 0 223 47 0 0 0 0 0 0 0 0 0 0 0 0 0 0 180 379 483 480 511 503 454 418 405 430 480 441 199 151 238 323 301 245 78 0 0 0 0 0 0
1168 528 678 906 732 607 782 1076 571 507 468 368 0 0 0 0 0 26 274 270 41 237 0 0 0 0 0 0 0 0 0 0 0 0 0 0 0 106 248 249 288 304 0 0 0 0 0 0 0 135 174 288 384 314 370 287 0 0 0 0 0 0

ECMWFFLT2_con_mucape_045.txt.gz
CAPE
1747 1745 1742 1686 1599 1490 1477 1480 1648 1704 1755 1752 1739 1848 1708 1433 1373 1391 1350 1536 1369 1416 1440 1445 1515 1551 1712 1602 1586 1366 1294 1257 1163 1085 1115 1121 1070 1070 990 1050 976 898 996 1065 1066 1147 838 656 985 1408 1274 1558 1109 743 631 622 570 484 429 521 498 454
1713 1694 1640 1524 1491 1437 1341 1358 1517 1614 1600 1578 1509 1292 1384 1366 1304 1361 1323 1273 1349 1353 1381 1424 1497 1710 1452 1657 1323 1326 1302 1224 1083 1075 1103 1014 1005 953 951 956 894 911 875 781 844 252 539 573 824 1282 1164 964 863 896 769 584 533 450 444 410 474 832
1690 1644 1564 1515 1531 1428 1240 1303 1429 1495 1498 1476 1415 1441 1408 1291 1331 1321 1256 1225 1241 1298 1357 1416 1372 1483 1565 1436 1419 1295 1206 1155 1084 1021 1046 990 970 841 806 797 802 808 797 550 15 0 282 391 818 837 1129 834 828 876 725 555 452 495 495 416 629 921
1634 1588 1529 1530 1450 1242 1121 1195 1302 1395 1518 1472 1396 1329 1213 1176 1229 1268 1169 1089 1119 1223 1305 1297 1649 1679 1686 1382 1305 1250 1124 1065 1060 1035 1070 1178 965 875 741 628 488 347 155 172 201 171 0 279 783 819 895 841 816 785 651 482 496 562 475 751 708 838
1543 1481 1465 1424 1309 1171 1058 1212 1242 1304 1320 1304 1205 1096 1090 1025 1043 1191 1089 920 1009 1118 1174 1265 1271 1240 1268 1254 1223 1138 1058 904 875 939 685 610 662 617 386 290 90 110 164 191 210 227 234 393 765 794 845 857 809 687 542 498 512 517 520 690 894 1156
1478 1346 1334 1339 1250 1065 1145 1246 1233 1174 1129 1093 950 857 854 926 956 950 836 816 897 999 1139 1216 1214 1272 1225 1235 1107 1093 1048 917 873 802 723 600 503 406 283 249 251 252 214 195 217 243 215 432 737 715 734 763 899 699 556 500 516 480 634 773 1070 1062
1421 1209 1150 1354 1126 1163 1280 1276 1211 1090 1026 1008 846 750 753 843 789 696 725 725 813 943 1051 1182 1215 1205 1174 1186 1135 1106 1096 989 935 876 768 581 457 225 20 140 265 273 208 228 245 226 151 430 688 650 627 628 829 811 638 541 548 612 717 822 952 883
1284 1103 1178 1244 1042 1267 1280 1171 1077 1100 945 909 830 748 678 644 584 538 523 615 756 890 968 1070 1197 1110 1125 1135 1103 1114 1060 1041 963 780 618 531 4 1 10 12 160 236 245 236 226 184 140 296 629 639 553 547 741 711 650 587 574 680 755 844 859 1200
1176 1092 1248 969 1034 1184 1042 948 1008 989 1000 1056 855 763 700 594 534 538 511 617 726 817 890 1015 1108 992 1021 1016 1001 1003 958 873 840 673 503 183 0 0 0 4 43 276 225 215 179 144 146 171 268 381 509 567 696 634 564 652 722 742 856 1052 1025 1304
1090 1077 871 866 987 907 862 999 974 972 1122 1018 953 891 799 609 582 642 617 566 648 739 833 981 1013 941 965 968 949 903 817 707 626 514 182 0 0 0 0 0 32 286 204 161 160 118 162 232 279 308 444 602 668 662 617 762 803 844 958 954 771 961
1068 849 867 916 774 747 888 1010 1035 1078 1119 999 986 949 820 639 635 745 733 713 656 654 693 899 980 946 967 1006 965 856 754 684 546 442 184 0 324 305 1 0 1 12 23 1 0 2 60 258 312 368 554 660 735 756 762 827 848 838 776 576 672 733
752 680 752 721 729 809 908 956 1032 1122 1043 971 951 894 782 675 715 774 815 818 698 664 694 703 824 829 774 733 765 722 658 606 493 494 421 616 524 484 113 212 416 189 42 0 0 0 0 224 321 463 596 652 643 632 785 880 840 722 698 662 684 752
655 678 623 618 762 842 844 928 1075 1083 1035 951 949 865 750 692 730 764 821 830 744 701 768 736 712 653 636 624 586 531 524 639 607 722 825 774 559 586 543 365 196 66 2 0 0 0 30 118 106 216 360 429 554 698 787 800 726 693 660 636 641 661
741 720 662 657 769 868 856 901 1074 1090 1084 1083 1008 909 810 760 750 759 786 826 810 748 754 725 718 725 737 654 589 550 656 650 742 968 1069 861 546 498 486 261 48 52 232 0 0 0 20 65 233 284 380 513 586 691 756 741 716 670 600 603 612 579
887 763 827 734 800 886 913 936 995 1060 1166 1184 1072 968 861 860 913 964 954 932 848 762 763 780 818 879 912 830 700 742 832 789 906 1068 1145 896 623 447 434 384 37 0 0 0 0 43 12 48 284 336 430 555 591 659 752 756 717 572 563 555 542 478
952 885 846 820 855 891 964 1006 1067 1044 1164 1208 1119 989 942 1023 1089 1096 1052 882 738 770 788 828 837 885 924 905 880 926 850 941 1001 1148 1185 1017 669 425 130 55 1 0 0 0 7 0 0 180 301 408 516 641 662 653 712 690 677 587 585 545 515 475
998 961 927 926 922 946 981 1052 1128 1228 1169 1157 1092 965 1058 1149 1193 1165 1140 938 731 750 696 697 944 1021 906 922 966 958 966 1020 1038 1174 1204 1148 876 588 583 128 8 3 0 0 0 0 17 92 204 393 604 726 758 797 839 702 642 648 588 546 506 455
1080 1065 1036 1039 1032 1019 1068 1097 1154 1264 1243 1134 1037 992 1130 1202 1190 1176 1163 1090 899 723 636 660 1015 1084 908 870 958 927 924 1051 1019 1102 1175 1063 1020 756 488 180 128 36 4 0 0 42 184 198 259 312 380 492 581 662 710 642 565 697 660 574 497 476
1228 1192 1170 1170 1150 1127 1155 1209 1216 1268 1258 1110 1016 1016 1138 1148 1135 1155 1172 1058 952 879 749 772 1034 948 789 829 819 876 912 997 918 1032 948 784 884 617 385 467 153 60 3 0 0 124 119 240 270 239 323 390 476 540 589 608 651 740 772 727 711 666
1339 1288 1253 1270 1253 1201 1170 1209 1223 1254 1253 1115 1019 1055 1103 1096 1144 1227 1190 1064 1027 975 785 961 855 763 777 832 919 872 916 886 944 850 855 1006 794 750 723 627 416 64 34 42 0 0 8 79 244 130 252 300 382 546 673 756 739 706 670 848 826 822
1436 1370 1308 1317 1276 1236 1159 1188 1222 1248 1206 1103 1042 1091 1218 1244 1241 1260 1182 1038 1082 990 930 958 1040 983 957 850 902 948 822 857 823 826 822 792 863 874 924 702 101 20 9 7 2 0 0 9 80 52 196 257 328 507 680 728 732 702 735 650 666 537
1560 1447 1397 1341 1256 1224 1223 1211 1223 1252 1087 1016 1055 1137 1298 1364 1330 1205 1034 948 1000 916 922 995 942 877 913 914 866 770 789 778 794 715 697 728 784 945 736 687 353 1 0 0 0 0 0 325 22 145 200 253 275 450 532 673 587 635 608 442 483 685
1612 1537 1449 1311 1095 1152 1246 1260 1213 1150 1064 1027 1109 1298 1402 1413 1320 1146 994 907 884 893 977 928 946 996 969 893 838 786 723 837 832 792 757 747 874 982 878 760 597 111 0 148 0 458 429 43 24 146 353 342 339 358 358 487 440 448 454 501 533 460
1600 1606 1433 1284 1156 1163 1175 1303 1303 1285 1206 1243 1314 1400 1434 1331 1194 1013 987 945 958 1019 1027 1012 1049 1025 962 826 696 647 612 727 908 878 791 839 907 956 847 662 738 557 420 472 464 477 466 381 368 355 385 339 245 301 283 390 360 263 350 302 395 546
1608 1633 1515 1266 1116 1126 1187 1372 1450 1414 1411 1402 1291 1342 1222 1168 1071 1006 928 979 1046 1051 1081 1074 1041 997 887 526 418 250 564 694 852 788 704 825 842 928 942 684 699 586 478 293 414 411 441 433 420 230 11 0 0 113 257 312 267 261 248 159 200 138
1613 1638 1534 1319 1217 1076 1211 1465 1530 1472 1346 1316 1151 1100 1068 1050 979 944 977 1004 1078 1128 1112 1000 928 861 582 380 351 502 707 742 770 737 596 812 833 813 889 704 803 631 477 422 76 335 40 403 428 0 0 0 0 15 0 278 237 19 120 286 131 91
1647 1703 1584 1432 1209 1159 1345 1532 1576 1451 1331 1242 1073 992 996 942 939 950 1017 1005 1111 999 888 767 814 650 586 441 434 585 736 829 877 836 737 812 887 857 702 836 727 656 618 419 376 84 337 24 466 281 0 305 422 31 0 54 158 70 106 181 275 275
1644 1709 1689 1448 1232 1310 1540 1647 1574 1400 1233 1114 994 922 924 913 918 974 981 982 967 878 741 718 672 586 581 510 527 652 806 794 894 862 826 789 912 830 724 781 630 686 581 506 416 277 313 397 450 444 403 466 71 0 0 0 0 8 73 173 144 195
1517 1563 1510 1328 1273 1459 1656 1675 1570 1355 1051 872 825 869 892 885 874 881 831 841 924 848 726 602 495 476 556 645 642 596 710 803 816 797 806 725 822 840 841 674 567 625 536 441 386 389 390 406 413 461 426 420 388 0 0 0 0 0 0 58 126 125
1466 1349 1243 1181 1338 1516 1645 1644 1471 1269 857 736 761 768 768 667 682 662 685 717 869 817 658 504 430 455 491 498 502 504 553 575 590 657 684 653 699 757 814 844 643 692 607 465 452 468 411 383 405 436 414 443 337 0 0 0 0 0 0 0 85 92
1420 1255 1242 1252 1252 1501 1616 1603 1524 1395 903 688 566 603 599 566 556 546 578 615 737 751 595 459 397 382 344 56 0 0 0 181 420 529 569 479 514 626 723 895 779 687 606 366 395 446 465 488 446 375 390 493 374 0 0 14 0 0 0 0 39 103
1365 1328 1334 1230 1456 1681 1685 1636 1587 1465 1092 658 533 613 640 587 520 480 396 464 496 492 348 159 228 273 192 0 0 0 0 0 186 422 484 422 418 599 762 831 789 741 791 687 478 460 436 438 475 495 446 500 420 112 0 0 0 0 0 0 2 37
1440 1430 1436 1484 1650 1728 1662 1645 1569 1242 1014 708 608 694 729 639 505 419 338 277 222 145 120 22 152 211 0 0 0 0 0 0 317 378 388 422 502 589 686 669 775 774 853 796 587 517 126 220 386 504 523 531 444 0 0 0 0 0 0 0 0 0
1510 1430 1430 1442 1500 1502 1487 1408 1297 1126 815 569 540 677 753 678 454 385 306 248 190 162 152 130 144 154 149 0 0 0 150 312 333 368 373 376 442 596 645 678 723 631 615 576 517 441 248 245 286 480 530 584 460 303 0 0 0 0 0 0 0 0
1463 1357 1282 1183 1230 1234 1082 894 782 684 678 722 255 420 598 556 368 282 267 232 188 178 158 132 129 0 0 0 0 0 0 0 120 306 321 332 359 370 406 417 380 377 341 411 430 397 298 235 251 434 540 618 556 389 45 20 0 0 0 0 0 0
1476 1206 1035 939 879 816 762 731 724 738 690 283 157 246 372 296 177 233 271 240 217 56 0 0 0 0 0 0 0 0 0 0 0 0 0 120 326 356 399 439 390 300 352 442 482 346 217 227 256 315 474 597 526 378 308 93 0 0 0 0 0 0
1315 1104 936 821 791 721 764 783 699 584 250 188 209 193 169 188 167 248 282 300 241 0 0 0 0 0 0 0 0 0 0 0 0 0 0 0 0 0 355 452 416 312 331 337 304 261 215 32 194 371 436 448 326 346 262 169 0 0 0 0 0 0

ECMWFFLT2_con_mucape_048.txt.gz
CAPE
1792 1684 1674 1641 1596 1672 1889 2042 1709 1857 1845 1713 1640 1538 1667 1548 1464 1447 1312 1445 1430 1413 1380 1400 1447 1438 1666 1603 1484 1292 1194 1180 1105 1056 1135 1125 1019 971 1096 1059 1055 1042 1050 1084 750 914 1007 1316 1544 1772 1628 1259 1286 579 496 472 491 444 392 595 532 510
1807 1665 1664 1465 1469 1492 1524 1504 1460 1511 1560 1325 1261 1226 1328 1399 1463 1404 1346 1236 1304 1282 1280 1294 1328 1576 1368 1488 1230 1180 1172 1137 1054 1036 1060 923 919 898 808 893 856 807 766 618 600 640 609 1149 1509 1730 1772 1394 659 593 492 485 456 392 454 379 492 795
1825 1665 1486 1356 1284 1262 1364 1528 1546 1463 1283 1199 1320 1458 1304 1313 1296 1204 1138 1160 1110 1126 1205 1224 1270 1353 1318 1246 1323 1216 1130 1119 1024 904 918 838 696 680 726 762 977 778 600 555 549 608 593 671 1255 1733 1577 829 694 598 476 455 435 392 350 425 556 896
1758 1586 1460 1364 1255 1264 1386 1427 1462 1373 1266 1177 1267 1240 1168 1194 1143 1104 1082 1033 1052 1116 1111 1287 1480 1533 1714 1128 1107 1108 1113 1058 969 944 971 1103 969 869 826 666 630 462 217 138 463 570 580 628 887 959 958 865 768 602 450 452 466 343 327 784 694 726
1721 1598 1504 1340 1251 1188 1241 1350 1387 1336 1331 1287 1208 1240 1180 1130 1131 1081 1029 997 1016 1058 1101 1301 1190 1150 1136 1055 978 892 809 826 856 797 814 795 596 378 326 202 80 49 129 175 2 325 493 575 825 899 843 855 769 586 424 465 463 358 467 650 818 848
1652 1569 1505 1364 1227 1066 1158 1312 1417 1378 1293 1166 1160 1284 1178 1146 1170 1040 966 986 1030 1049 1121 1170 1078 1082 1068 993 884 800 756 664 554 568 620 629 479 366 302 280 238 81 69 212 237 65 374 498 764 875 833 826 735 578 440 454 442 390 583 687 1158 1046
1627 1542 1494 1371 1126 1066 1070 1245 1356 1287 1118 1186 1115 1088 837 979 1099 978 930 972 1013 1076 1129 1127 1066 1053 1013 918 894 848 781 708 674 694 642 495 339 281 254 266 187 20 211 246 234 91 162 375 698 847 816 809 708 532 452 455 449 487 627 791 1289 1106
1576 1508 1417 1280 1182 1010 973 1107 1197 1233 1057 999 957 644 658 965 1094 873 846 895 924 1016 1062 1043 980 960 982 934 934 942 888 819 731 631 583 466 196 230 248 152 1 3 228 258 211 0 114 340 627 802 834 815 718 600 505 500 463 528 706 795 896 1205
1466 1419 1287 1160 1312 1014 890 1041 1094 1006 906 906 656 563 724 871 826 732 736 776 812 938 1007 1002 876 783 915 921 960 962 899 840 761 519 475 328 8 7 2 0 1 177 234 250 178 3 5 288 624 746 710 760 745 640 548 516 511 626 724 665 740 1284
1328 1247 1158 1263 1318 955 869 1035 1032 981 982 863 526 653 696 597 625 659 646 655 713 828 964 978 956 858 760 775 809 829 756 694 667 504 409 354 270 0 58 0 0 0 203 242 175 129 66 219 518 733 692 707 707 615 548 511 643 734 781 743 735 1389
1141 1099 1133 1365 1190 891 947 1007 1024 997 977 709 579 596 504 474 468 498 561 610 674 741 824 903 973 790 752 728 706 771 694 587 476 439 344 300 428 442 263 1 2 0 0 213 0 10 17 45 323 622 580 648 690 620 563 654 740 814 890 770 712 982
1202 1089 1200 1412 1192 940 1071 1086 1012 938 739 646 671 586 467 431 439 448 466 566 605 644 739 876 875 725 777 758 801 756 658 578 512 351 84 356 484 328 61 98 123 43 0 0 0 0 15 59 185 458 602 723 683 682 697 751 816 912 900 672 653 633
1208 1084 1353 1433 1070 1071 1108 1000 967 847 719 871 850 710 527 474 510 616 645 638 558 566 674 813 853 790 780 782 791 677 600 535 416 411 543 574 515 439 432 400 34 0 0 0 0 8 238 288 407 509 639 708 726 713 762 805 858 894 785 559 582 547
1162 1047 1344 1123 1074 1034 940 910 877 844 836 1014 924 799 680 476 547 762 760 780 665 549 580 655 785 738 654 586 520 491 446 437 501 638 742 610 499 458 278 25 1 1 78 0 0 4 166 392 484 607 690 711 728 749 800 856 675 706 615 560 505 411
1090 1131 1074 898 985 900 977 995 978 965 968 989 912 857 679 555 546 780 790 724 675 592 642 643 618 566 551 548 527 471 490 485 724 852 848 561 496 466 345 10 0 0 0 0 4 47 54 127 374 440 560 675 744 863 823 662 690 600 506 575 488 354
1006 1136 947 995 909 906 1031 977 950 1000 926 889 904 860 704 565 544 707 717 759 755 684 652 635 612 624 692 658 584 499 653 568 759 929 846 621 476 421 1 0 0 0 0 2 15 25 69 138 344 458 580 671 765 827 778 695 697 529 510 562 520 364
988 997 921 946 927 960 1004 990 1027 1010 959 983 973 936 883 754 694 804 912 898 797 691 699 678 708 760 800 768 690 642 723 733 768 977 819 671 530 150 28 6 0 0 0 0 5 36 116 225 359 472 551 584 676 726 710 736 733 476 510 505 462 486
1029 854 822 841 932 994 984 1002 1030 1021 1110 1179 1149 1040 943 830 774 931 1062 922 672 659 731 743 754 800 816 804 826 830 785 858 868 1028 887 802 570 188 58 29 0 0 0 0 3 52 202 324 383 493 589 571 584 618 719 528 591 544 530 475 419 516
1201 985 891 844 964 996 1009 1019 1029 985 1071 1169 1156 1050 1015 983 900 1052 1116 1004 801 661 646 651 764 902 883 839 801 756 866 784 808 862 782 769 682 496 53 22 8 0 0 0 11 95 206 325 423 496 596 726 614 485 461 517 590 495 458 442 486 586
1160 1021 970 920 983 1000 1012 1027 1072 1058 1059 1133 1092 996 1038 1109 1122 1111 1096 1046 916 751 643 558 783 863 848 742 637 730 811 797 714 838 819 653 728 686 251 52 0 0 3 21 39 129 157 205 303 382 450 570 612 552 536 490 623 638 605 457 418 387
1185 1142 999 962 979 1018 1026 1050 1088 1096 1064 1157 1102 986 1056 1094 1123 1088 1130 1063 914 881 809 679 756 852 748 624 676 766 768 633 787 610 642 528 632 568 309 72 0 0 7 32 48 59 66 53 201 255 442 563 573 539 544 515 469 612 618 501 427 476
1254 1178 1139 1050 1003 1025 1059 1100 1128 1127 1074 1096 1123 992 1002 1012 1050 1105 1090 1046 937 958 867 760 807 756 701 659 578 716 750 576 661 750 674 608 548 568 436 325 0 0 12 53 46 74 26 0 23 235 255 344 448 415 416 539 546 596 493 454 404 464
1262 1206 1211 1138 1082 1037 1048 1104 1098 1123 1095 1128 1143 1013 988 1106 1199 1096 1048 886 915 919 799 800 819 774 748 706 608 622 723 706 658 676 684 648 651 578 600 435 0 6 0 0 101 104 0 0 8 96 166 249 280 266 304 431 418 425 481 384 346 430
1196 1238 1233 1192 1246 1205 1115 1093 1085 1125 1197 1186 1032 1023 1070 1179 1067 1142 973 822 730 699 762 779 808 773 733 764 714 739 711 666 596 598 494 462 514 544 664 473 331 0 2 52 275 294 158 0 0 6 88 236 118 262 312 341 402 251 242 139 268 232
1221 1314 1292 1288 1348 1267 1151 1168 1186 1205 1151 995 969 1082 1251 1286 1233 1005 886 771 766 810 849 818 807 828 821 772 687 668 617 678 700 652 516 433 581 582 494 532 471 375 308 320 157 360 359 329 0 0 0 0 7 103 194 209 151 172 156 119 122 184
1271 1353 1331 1395 1388 1230 1162 1190 1146 1081 1011 1026 1085 1197 1232 1107 939 851 821 785 832 863 891 851 870 832 761 639 474 452 451 601 691 742 611 543 671 634 572 580 604 477 388 384 362 400 424 352 195 0 0 0 0 15 4 204 133 162 86 174 45 186
1368 1390 1436 1466 1334 1093 1128 1171 1173 1163 1084 1145 1136 1166 1148 1003 860 804 788 790 848 910 916 843 758 768 527 0 0 132 395 531 750 746 614 709 688 662 568 584 685 550 437 393 368 408 410 392 377 222 0 241 338 0 10 136 50 59 101 140 162 182
1442 1460 1517 1470 1208 1069 1106 1208 1255 1264 1210 1248 1105 1036 1017 960 814 772 799 808 875 821 717 619 650 532 360 0 0 144 456 547 652 678 517 610 775 745 693 706 677 665 472 415 352 315 355 371 380 351 351 62 65 0 0 0 1 69 72 126 112 80
1453 1467 1501 1455 1171 1061 1107 1278 1365 1386 1328 1317 1105 950 973 906 796 787 836 784 761 610 523 525 522 438 364 42 352 424 544 640 699 726 685 622 746 801 781 737 720 672 564 499 423 332 303 322 316 388 376 329 322 0 0 0 0 0 118 104 71 0
1462 1460 1529 1489 1203 1093 1148 1313 1455 1478 1401 1258 1057 866 884 865 782 797 779 716 652 529 456 390 249 363 379 375 167 411 573 645 657 714 720 699 714 799 795 691 728 658 604 574 478 404 333 300 310 366 377 348 0 0 0 0 0 0 1 23 57 0
1246 1344 1604 1543 1322 1146 1173 1400 1542 1503 1353 1107 989 833 835 836 746 757 648 657 592 473 380 98 0 0 0 391 440 422 436 523 605 640 668 676 658 710 783 762 722 605 595 565 472 403 358 344 352 340 353 346 274 0 0 0 0 0 5 31 9 8
1155 1213 1544 1589 1404 1261 1300 1523 1630 1560 1249 960 790 787 784 683 645 615 520 594 563 426 311 78 0 0 0 0 0 0 0 224 376 441 516 562 560 569 662 714 758 671 638 609 554 456 404 414 398 359 340 358 333 296 0 0 0 0 1 21 10 0
1028 1064 1474 1563 1408 1236 1371 1596 1663 1526 1181 771 712 662 533 501 492 488 461 504 567 475 310 69 0 0 0 0 0 0 0 0 14 265 368 434 396 383 464 611 759 744 686 612 482 372 382 422 461 420 394 344 332 346 293 0 0 0 0 0 0 0
1026 1082 1362 1422 1228 1277 1464 1628 1598 1508 1249 799 562 482 428 430 422 409 407 434 481 452 293 0 0 0 0 0 0 0 0 0 0 89 0 0 228 397 499 623 766 751 713 679 658 588 500 471 454 444 433 442 407 440 343 0 0 0 0 0 0 0
725 719 910 1135 1141 1312 1538 1640 1553 1546 1501 1221 697 455 458 401 380 338 286 245 215 63 0 0 0 0 0 0 0 0 0 0 180 241 13 279 331 422 500 578 608 693 722 777 821 797 658 527 385 273 367 459 495 469 388 234 0 0 0 0 0 0
550 574 804 1001 1132 1324 1605 1717 1702 1634 1537 1370 994 578 538 460 355 294 210 0 0 0 0 0 0 0 0 0 0 0 0 0 0 0 0 252 276 337 364 434 482 482 495 490 556 563 539 432 285 241 295 456 524 524 384 272 133 0 0 0 0 0
413 575 811 695 1129 1349 1574 1534 1632 1700 1556 1339 1011 636 608 565 425 282 192 0 0 0 0 0 0 0 0 0 0 0 0 0 0 0 0 0 234 256 296 352 353 344 317 325 380 452 421 335 216 240 312 509 591 550 407 316 135 0 0 0 0 0